W4HSV Weather Reports


time (UTC)temp
C
wind
direction
speed
KPH
gust
KPH
rain 1hr
cm
rain 24hr
cm
rain mn
cm
humidity
%
barometer
mb
20260510161622 23 321 1.6 11.3 0.00 0.00 0.00 78 1017.0
20260510161530 23 321 3.2 11.3 0.00 0.00 0.00 77 1017.1
20260510161417 23 310 3.2 11.3 0.00 0.00 0.00 78 1017.1
20260510161329 23 279 3.2 11.3 0.00 0.00 0.00 77 1017.1
20260510161216 23 270 6.4 11.3 0.00 0.00 0.00 77 1017.1
20260510161125 23 250 6.4 11.3 0.00 0.00 0.00 77 1017.1
20260510161032 23 215 6.4 12.9 0.00 0.00 0.00 77 1017.0
20260510160920 23 219 4.8 12.9 0.00 0.00 0.00 78 1017.1
20260510160830 23 242 4.8 12.9 0.00 0.00 0.00 78 1017.1
20260510160717 23 165 4.8 11.3 0.00 0.00 0.00 79 1017.2
20260510160644 23 157 4.8 11.3 0.00 0.00 0.00 78 1017.2
20260510160554 23 163 4.8 11.3 0.00 0.00 0.00 78 1017.2
20260510160328 23 319 3.2 11.3 0.00 0.00 0.00 78 1017.2
20260510160221 23 306 4.8 11.3 0.00 0.00 0.00 78 1017.2
20260510160126 23 279 4.8 11.3 0.00 0.00 0.00 78 1017.2
20260510160014 23 250 4.8 9.7 0.00 0.00 0.00 79 1017.2
20260510155923 23 186 4.8 11.3 0.00 0.00 0.00 80 1017.2
20260510155830 23 187 4.8 12.9 0.00 0.00 0.00 80 1017.1
20260510155718 23 118 3.2 14.5 0.00 0.00 0.00 80 1017.1
20260510155630 23 109 3.2 14.5 0.00 0.00 0.00 79 1017.1
20260510155538 23 317 4.8 14.5 0.00 0.00 0.00 79 1017.0
20260510155331 23 252 6.4 14.5 0.00 0.00 0.00 79 1017.1
20260510155239 23 180 8.0 14.5 0.00 0.00 0.00 78 1016.9
20260510155205 23 189 8.0 14.5 0.00 0.00 0.00 79 1017.0
20260510155119 23 233 8.0 14.5 0.00 0.00 0.00 79 1017.0
20260510154812 23 130 6.4 9.7 0.00 0.00 0.00 79 1016.9
20260510154720 23 113 6.4 9.7 0.00 0.00 0.00 79 1016.9
20260510154626 23 169 4.8 9.7 0.00 0.00 0.00 79 1016.9
20260510154513 23 178 3.2 9.7 0.00 0.00 0.00 79 1017.0
20260510154425 23 269 4.8 9.7 0.00 0.00 0.00 79 1017.0
20260510154312 23 275 4.8 9.7 0.00 0.00 0.00 79 1016.9
20260510154219 23 264 4.8 9.7 0.00 0.00 0.00 80 1016.8
20260510154126 23 259 3.2 6.4 0.00 0.00 0.00 79 1016.8
20260510154013 23 199 1.6 6.4 0.00 0.00 0.00 79 1016.9
20260510153925 23 123 1.6 6.4 0.00 0.00 0.00 79 1016.9
20260510153813 23 212 1.6 6.4 0.00 0.00 0.00 79 1016.9
20260510153740 22 182 1.6 6.4 0.00 0.00 0.00 80 1016.9
20260510153646 22 203 3.2 6.4 0.00 0.00 0.00 80 1016.9
20260510153556 22 203 3.2 6.4 0.00 0.00 0.00 80 1016.9
20260510153314 22 282 3.2 6.4 0.00 0.00 0.00 80 1016.9
20260510153221 22 171 1.6 4.8 0.00 0.00 0.00 80 1016.9
20260510153129 22 169 1.6 4.8 0.00 0.00 0.00 80 1016.9
20260510153017 22 171 0.0 4.8 0.00 0.00 0.00 81 1016.9
20260510152924 22 306 0.0 11.3 0.00 0.00 0.00 81 1016.9
20260510152852 22 306 1.6 11.3 0.00 0.00 0.00 81 1017.0
20260510152721 22 306 3.2 11.3 0.00 0.00 0.00 81 1016.9
20260510152629 22 306 1.6 11.3 0.00 0.00 0.00 82 1016.9
20260510152536 22 266 1.6 11.3 0.00 0.00 0.00 83 1016.9
20260510152423 22 148 1.6 11.3 0.00 0.00 0.00 82 1016.9
20260510152312 22 143 1.6 11.3 0.00 0.00 0.00 82 1016.8
20260510152221 22 67 3.2 11.3 0.00 0.00 0.00 82 1016.8
20260510152149 22 136 1.6 11.3 0.00 0.00 0.00 82 1017.0
20260510152122 22 158 1.6 6.4 0.00 0.00 0.00 83 1016.8
20260510151815 22 84 1.6 6.4 0.00 0.00 0.00 83 1016.8
20260510151721 21 89 3.2 12.9 0.00 0.00 0.00 84 1016.8
20260510151647 21 83 4.8 12.9 0.00 0.00 0.00 84 1016.8
20260510151518 21 84 3.2 12.9 0.00 0.00 0.00 84 1016.8
20260510151426 21 83 3.2 12.9 0.00 0.00 0.00 85 1016.8
20260510151332 21 76 1.6 12.9 0.00 0.00 0.00 85 1016.9
20260510151220 21 90 1.6 12.9 0.00 0.00 0.00 85 1016.9
20260510151148 21 155 1.6 12.9 0.00 0.00 0.00 84 1016.9
20260510151016 21 162 4.8 12.9 0.00 0.00 0.00 85 1016.9
20260510150943 21 144 4.8 12.9 0.00 0.00 0.00 86 1016.9
20260510150813 21 159 3.2 8.0 0.00 0.00 0.00 86 1016.8
20260510150719 21 168 1.6 8.0 0.00 0.00 0.00 87 1016.9
20260510150646 21 200 1.6 6.4 0.00 0.00 0.00 87 1016.9
20260510150616 21 149 0.0 4.8 0.00 0.00 0.00 88 1017.0
20260510150314 21 150 0.0 4.8 0.00 0.00 0.00 89 1017.0
20260510150222 20 150 1.6 4.8 0.00 0.00 0.00 88 1017.0
20260510150129 20 150 1.6 4.8 0.00 0.00 0.00 88 1016.9
20260510150017 20 150 1.6 4.8 0.00 0.00 0.00 89 1016.8
20260510145925 20 148 1.6 4.8 0.00 0.00 0.00 90 1016.8
20260510145812 20 183 1.6 4.8 0.00 0.00 0.00 90 1016.9
20260510145724 20 144 1.6 4.8 0.00 0.00 0.00 91 1016.9
20260510145631 20 53 1.6 4.8 0.00 0.00 0.00 92 1016.9
20260510145540 20 33 1.6 4.8 0.00 0.00 0.00 93 1016.8
20260510145424 20 39 0.0 8.0 0.00 0.00 0.00 93 1016.8
20260510145331 20 86 1.6 8.0 0.00 0.00 0.00 93 1016.9
20260510145220 19 63 0.0 8.0 0.00 0.00 0.00 93 1016.9
20260510145130 19 63 0.0 8.0 0.00 0.00 0.00 93 1016.9
20260510145100 19 63 0.0 8.0 0.00 0.00 0.00 94 1016.9
20260510144813 19 128 1.6 8.0 0.00 0.00 0.00 94 1016.9
20260510144722 19 128 3.2 8.0 0.00 0.00 0.00 94 1016.9
20260510144649 19 128 4.8 8.0 0.00 0.00 0.00 94 1016.9
20260510144540 18 157 3.2 6.4 0.00 0.00 0.00 96 1016.9
20260510144427 18 122 1.6 6.4 0.00 0.00 0.00 96 1016.9
20260510144334 18 182 0.0 3.2 0.00 0.00 0.00 96 1017.0
20260510144239 18 45 1.6 3.2 0.00 0.00 0.00 96 1017.0
20260510144126 18 44 0.0 4.8 0.00 0.00 0.00 96 1017.0
20260510144033 18 87 0.0 6.4 0.00 0.00 0.00 96 1017.1
20260510143920 18 168 0.0 6.4 0.00 0.00 0.00 96 1017.1
20260510143847 18 168 0.0 6.4 0.00 0.00 0.00 96 1017.1
20260510143738 18 168 0.0 6.4 0.00 0.00 0.00 97 1017.0
20260510143625 18 168 1.6 6.4 0.00 0.00 0.00 96 1017.0
20260510143555 18 168 1.6 6.4 0.00 0.00 0.00 97 1017.0
20260510143327 18 173 3.2 6.4 0.00 0.00 0.00 97 1017.0
20260510143215 18 186 3.2 6.4 0.00 0.00 0.00 97 1017.1
20260510143147 18 184 3.2 6.4 0.00 0.00 0.00 97 1017.1
20260510143015 18 182 1.6 6.4 0.00 0.00 0.00 97 1017.1
20260510142922 18 183 1.6 6.4 0.00 0.00 0.00 97 1017.1
20260510142829 18 161 1.6 6.4 0.00 0.00 0.00 97 1017.0
20260510142716 18 161 3.2 6.4 0.00 0.00 0.00 97 1017.0
20260510142644 18 188 3.2 6.4 0.00 0.00 0.00 97 1017.0
20260510142514 17 213 3.2 6.4 0.00 0.00 0.00 97 1017.0
20260510142421 17 187 3.2 6.4 0.00 0.00 0.00 97 1017.0
20260510142329 17 256 3.2 6.4 0.00 0.00 0.00 97 1017.0
20260510142217 17 256 3.2 6.4 0.00 0.00 0.00 97 1017.0
20260510142145 17 202 3.2 6.4 0.00 0.00 0.00 97 1017.0
20260510142058 17 220 3.2 6.4 0.00 0.00 0.00 97 1017.0
20260510141831 17 190 3.2 6.4 0.00 0.00 0.00 97 1017.1
20260510141718 17 219 1.6 6.4 0.00 0.00 0.00 98 1016.9
20260510141625 17 212 1.6 6.4 0.00 0.00 0.00 98 1016.9
20260510141531 17 184 1.6 6.4 0.00 0.00 0.00 97 1016.9
20260510141438 17 198 3.2 6.4 0.00 0.00 0.00 97 1017.0
20260510141330 17 222 3.2 6.4 0.00 0.00 0.00 97 1017.0
20260510141216 17 194 1.6 6.4 0.00 0.00 0.00 97 1017.0
20260510141123 17 224 1.6 6.4 0.00 0.00 0.00 97 1017.0
20260510141030 17 214 1.6 6.4 0.00 0.00 0.00 97 1017.0
20260510140917 17 190 3.2 6.4 0.00 0.00 0.00 97 1017.1
20260510140845 17 202 3.2 6.4 0.00 0.00 0.00 98 1017.1
20260510140715 17 191 3.2 6.4 0.00 0.00 0.00 98 1017.0
20260510140622 17 197 1.6 6.4 0.00 0.00 0.00 98 1017.0
20260510140552 17 43 1.6 6.4 0.00 0.00 0.00 98 1017.1
20260510140327 17 99 1.6 6.4 0.00 0.00 0.00 98 1017.2
20260510140213 17 99 1.6 6.4 0.00 0.00 0.00 98 1017.2
20260510140145 17 100 1.6 6.4 0.00 0.00 0.00 98 1017.2
20260510140052 17 100 1.6 6.4 0.00 0.00 0.00 98 1017.1
20260510135918 17 104 1.6 6.4 0.00 0.00 0.00 98 1017.1
20260510135825 17 133 3.2 6.4 0.00 0.00 0.00 98 1017.1
20260510135733 17 133 3.2 6.4 0.00 0.00 0.00 97 1017.1
20260510135620 17 144 3.2 6.4 0.00 0.00 0.00 97 1017.0
20260510135527 17 138 1.6 6.4 0.00 0.00 0.00 97 1017.0
20260510135438 17 179 0.0 6.4 0.00 0.00 0.00 97 1017.0
20260510135324 17 179 1.6 9.7 0.00 0.00 0.00 98 1017.0
20260510135212 17 184 3.2 9.7 0.00 0.00 0.00 98 1017.0
20260510135140 17 188 3.2 9.7 0.00 0.00 0.00 97 1017.0
20260510135049 17 184 3.2 9.7 0.00 0.00 0.00 97 1017.0
20260510134826 17 150 3.2 9.7 0.00 0.00 0.00 97 1017.0
20260510134713 17 111 3.2 9.7 0.00 0.00 0.00 97 1017.0
20260510134621 17 161 4.8 9.7 0.00 0.00 0.00 97 1017.0
20260510134529 17 192 4.8 9.7 0.00 0.00 0.00 97 1016.9
20260510134417 17 186 6.4 9.7 0.00 0.00 0.00 97 1016.8
20260510134329 17 198 4.8 8.0 0.00 0.00 0.00 98 1016.8
20260510134216 17 161 3.2 6.4 0.00 0.00 0.00 98 1016.8
20260510134123 17 171 3.2 8.0 0.00 0.00 0.00 98 1016.8
20260510134050 17 128 3.2 8.0 0.00 0.00 0.00 98 1016.7
20260510133914 17 177 3.2 8.0 0.00 0.00 0.00 98 1016.8
20260510133823 17 155 3.2 9.7 0.00 0.00 0.00 98 1016.8
20260510133715 17 148 3.2 9.7 0.00 0.00 0.00 97 1016.8
20260510133621 17 142 4.8 9.7 0.00 0.00 0.00 97 1016.8
20260510133551 17 193 4.8 9.7 0.00 0.00 0.00 97 1016.8
20260510133325 17 183 3.2 9.7 0.00 0.00 0.00 97 1016.8
20260510133215 17 188 4.8 9.7 0.00 0.00 0.00 97 1016.8
20260510133122 17 210 4.8 9.7 0.00 0.00 0.00 97 1016.8
20260510133029 17 230 6.4 9.7 0.00 0.00 0.00 97 1016.8
20260510132917 17 202 3.2 9.7 0.00 0.00 0.00 97 1016.8
20260510132824 17 217 3.2 6.4 0.00 0.00 0.00 97 1016.8
20260510132712 17 163 3.2 6.4 0.00 0.00 0.00 98 1016.8
20260510132625 17 154 4.8 6.4 0.00 0.00 0.00 98 1016.8
20260510132551 17 159 4.8 6.4 0.00 0.00 0.00 97 1016.7
20260510132418 17 117 3.2 6.4 0.00 0.00 0.00 98 1016.8
20260510132325 17 118 1.6 6.4 0.00 0.00 0.00 98 1016.8
20260510132213 17 128 1.6 6.4 0.00 0.00 0.00 98 1016.8
20260510132140 17 109 1.6 6.4 0.00 0.00 0.00 98 1016.8
20260510132114 17 98 0.0 6.4 0.00 0.00 0.00 97 1016.8
20260510131827 16 100 1.6 6.4 0.00 0.00 0.00 97 1016.7
20260510131714 16 169 3.2 6.4 0.00 0.00 0.00 97 1016.7
20260510131620 16 174 1.6 6.4 0.00 0.00 0.00 97 1016.7
20260510131528 16 130 0.0 4.8 0.00 0.00 0.00 97 1016.7
20260510131439 16 130 1.6 4.8 0.00 0.00 0.00 97 1016.6
20260510131326 16 130 3.2 4.8 0.00 0.00 0.00 97 1016.6
20260510131233 16 149 3.2 4.8 0.00 0.00 0.00 98 1016.8
20260510131120 17 103 1.6 4.8 0.00 0.00 0.00 98 1016.7
20260510131048 16 103 1.6 4.8 0.00 0.00 0.00 98 1016.7
20260510130935 16 82 3.2 4.8 0.00 0.00 0.00 98 1016.7
20260510130820 16 74 3.2 4.8 0.00 0.00 0.00 98 1016.7
20260510130712 16 74 1.6 4.8 0.00 0.00 0.00 98 1016.7
20260510130620 16 74 1.6 3.2 0.00 0.00 0.00 98 1016.7
20260510130550 16 74 1.6 3.2 0.00 0.00 0.00 97 1016.7
20260510130345 16 74 1.6 3.2 0.00 0.00 0.00 97 1016.6
20260510130212 16 74 1.6 4.8 0.00 0.00 0.00 97 1016.6
20260510130145 16 84 0.0 4.8 0.00 0.00 0.00 97 1016.6
20260510130032 16 120 0.0 4.8 0.00 0.00 0.00 97 1016.6
20260510125919 16 120 1.6 4.8 0.00 0.00 0.00 98 1016.5
20260510125826 16 120 1.6 4.8 0.00 0.00 0.00 97 1016.5
20260510125735 16 121 1.6 4.8 0.00 0.00 0.00 97 1016.5
20260510125642 16 102 3.2 4.8 0.00 0.00 0.00 97 1016.5
20260510125528 16 98 3.2 4.8 0.00 0.00 0.00 97 1016.5
20260510125419 16 105 3.2 4.8 0.00 0.00 0.00 97 1016.5
20260510125327 16 96 3.2 4.8 0.00 0.00 0.00 97 1016.5
20260510125213 16 121 1.6 4.8 0.00 0.00 0.00 97 1016.5
20260510125120 16 121 0.0 4.8 0.00 0.00 0.00 97 1016.5
20260510125055 16 121 0.0 4.8 0.00 0.00 0.00 97 1016.5
20260510124828 16 121 0.0 3.2 0.00 0.00 0.00 97 1016.4
20260510124716 16 120 1.6 3.2 0.00 0.00 0.00 97 1016.4
20260510124623 16 120 1.6 3.2 0.00 0.00 0.00 97 1016.4
20260510124530 16 120 0.0 3.2 0.00 0.00 0.00 97 1016.4
20260510124422 16 121 0.0 3.2 0.00 0.00 0.00 97 1016.4
20260510124330 16 121 0.0 4.8 0.00 0.00 0.00 97 1016.4
20260510124217 16 121 0.0 4.8 0.00 0.00 0.00 97 1016.5
20260510124125 16 121 0.0 4.8 0.00 0.00 0.00 97 1016.5
20260510124013 16 121 0.0 4.8 0.00 0.00 0.00 97 1016.4
20260510123920 16 120 0.0 4.8 0.00 0.00 0.00 97 1016.4
20260510123812 16 121 0.0 6.4 0.00 0.00 0.00 97 1016.4
20260510123720 16 121 1.6 6.4 0.00 0.00 0.00 97 1016.3
20260510123627 16 121 1.6 6.4 0.00 0.00 0.00 97 1016.3
20260510123556 16 121 1.6 6.4 0.00 0.00 0.00 97 1016.3
20260510123334 16 113 3.2 6.4 0.00 0.00 0.00 97 1016.4
20260510123221 16 113 4.8 6.4 0.00 0.00 0.00 97 1016.4
20260510123149 16 126 4.8 6.4 0.00 0.00 0.00 97 1016.3
20260510123015 16 112 3.2 9.7 0.00 0.00 0.00 97 1016.3
20260510122923 16 115 1.6 9.7 0.00 0.00 0.00 97 1016.3
20260510122831 16 132 1.6 9.7 0.00 0.00 0.00 97 1016.3
20260510122722 16 113 3.2 9.7 0.00 0.00 0.00 97 1016.3
20260510122649 16 115 3.2 9.7 0.00 0.00 0.00 97 1016.2
20260510122516 16 115 4.8 9.7 0.00 0.00 0.00 97 1016.2
20260510122445 16 125 4.8 9.7 0.00 0.00 0.00 97 1016.2
20260510122331 16 126 4.8 9.7 0.00 0.00 0.00 97 1016.2
20260510122218 16 142 4.8 8.0 0.00 0.00 0.00 97 1016.2
20260510122125 16 119 4.8 8.0 0.00 0.00 0.00 97 1016.2
20260510122100 16 122 4.8 8.0 0.00 0.00 0.00 97 1016.1
20260510121832 16 145 4.8 8.0 0.00 0.00 0.00 97 1016.1
20260510121720 16 150 6.4 8.0 0.00 0.00 0.00 97 1016.1
20260510121627 16 146 6.4 8.0 0.00 0.00 0.00 97 1016.1
20260510121519 16 133 4.8 8.0 0.00 0.00 0.00 97 1016.2
20260510121446 16 140 4.8 8.0 0.00 0.00 0.00 97 1016.2
20260510121331 16 134 4.8 8.0 0.00 0.00 0.00 97 1016.2
20260510121218 16 141 6.4 8.0 0.00 0.00 0.00 97 1016.1
20260510121125 16 132 6.4 9.7 0.00 0.00 0.00 97 1016.1
20260510121014 16 139 6.4 9.7 0.00 0.00 0.00 97 1016.2
20260510120926 16 133 4.8 9.7 0.00 0.00 0.00 97 1016.2
20260510120813 16 140 3.2 9.7 0.00 0.00 0.00 97 1016.2
20260510120741 16 154 3.2 9.7 0.00 0.00 0.00 97 1016.2
20260510120647 16 151 3.2 9.7 0.00 0.00 0.00 97 1016.2
20260510120616 16 187 3.2 9.7 0.00 0.00 0.00 97 1016.1
20260510120312 16 119 4.8 9.7 0.00 0.00 0.00 97 1016.0
20260510120219 16 189 6.4 9.7 0.00 0.00 0.00 97 1016.0
20260510120126 16 191 6.4 9.7 0.00 0.00 0.00 97 1016.0
20260510120012 16 183 3.2 8.0 0.00 0.00 0.00 97 1016.1
20260510115919 16 169 3.2 8.0 0.00 0.00 0.00 97 1016.1
20260510115826 16 148 3.2 8.0 0.00 0.00 0.00 97 1016.1
20260510115716 16 142 1.6 8.0 0.00 0.00 0.00 97 1016.0
20260510115624 16 170 1.6 8.0 0.00 0.00 0.00 97 1016.0
20260510115552 16 180 1.6 8.0 0.00 0.00 0.00 97 1016.1
20260510115418 16 144 3.2 8.0 0.00 0.00 0.00 97 1016.0
20260510115326 16 189 3.2 8.0 0.00 0.00 0.00 97 1016.0
20260510115214 16 182 1.6 4.8 0.00 0.00 0.00 97 1015.9
20260510115126 16 148 1.6 4.8 0.00 0.00 0.00 97 1015.9
20260510115057 16 148 3.2 4.8 0.00 0.00 0.00 97 1015.9
20260510114830 16 201 1.6 6.4 0.00 0.00 0.00 97 1015.8
20260510114717 16 167 1.6 4.8 0.00 0.00 0.00 97 1015.8
20260510114628 16 122 1.6 4.8 0.00 0.00 0.00 97 1015.8
20260510114516 16 131 1.6 4.8 0.00 0.00 0.00 97 1015.8
20260510114424 16 131 3.2 4.8 0.00 0.00 0.00 97 1015.8
20260510114332 16 124 3.2 4.8 0.00 0.00 0.00 97 1015.9
20260510114218 16 153 1.6 4.8 0.00 0.00 0.00 97 1015.7
20260510114125 16 137 3.2 4.8 0.00 0.00 0.00 97 1015.7
20260510114017 16 146 3.2 4.8 0.00 0.00 0.00 97 1015.6
20260510113924 16 145 3.2 4.8 0.00 0.00 0.00 97 1015.6
20260510113812 16 126 3.2 4.8 0.00 0.00 0.00 97 1015.6
20260510113720 16 126 3.2 4.8 0.00 0.00 0.00 97 1015.6
20260510113649 15 127 3.2 4.8 0.00 0.00 0.00 97 1015.6
20260510113601 15 135 3.2 4.8 0.00 0.00 0.00 97 1015.5
20260510113315 15 120 1.6 4.8 0.00 0.00 0.00 97 1015.5
20260510113223 15 126 1.6 3.2 0.00 0.00 0.00 97 1015.5
20260510113151 15 126 1.6 3.2 0.00 0.00 0.00 97 1015.5
20260510113016 15 126 1.6 3.2 0.00 0.00 0.00 97 1015.6
20260510112928 15 126 1.6 4.8 0.00 0.00 0.00 97 1015.6
20260510112814 15 126 1.6 6.4 0.00 0.00 0.00 97 1015.6
20260510112722 15 126 1.6 6.4 0.00 0.00 0.00 97 1015.6
20260510112630 15 126 1.6 6.4 0.00 0.00 0.00 97 1015.5
20260510112518 15 140 0.0 6.4 0.00 0.00 0.00 97 1015.5
20260510112446 15 140 1.6 6.4 0.00 0.00 0.00 97 1015.5
20260510112316 15 140 1.6 6.4 0.00 0.00 0.00 97 1015.4
20260510112223 15 140 3.2 6.4 0.00 0.00 0.00 97 1015.4
20260510112130 15 128 3.2 6.4 0.00 0.00 0.00 97 1015.4
20260510112059 15 132 3.2 6.4 0.00 0.00 0.00 97 1015.4
20260510111832 15 148 3.2 6.4 0.00 0.00 0.00 97 1015.3
20260510111723 15 186 3.2 6.4 0.00 0.00 0.00 97 1015.3
20260510111630 15 175 3.2 6.4 0.00 0.00 0.00 97 1015.3
20260510111539 15 151 3.2 6.4 0.00 0.00 0.00 97 1015.2
20260510111426 15 149 3.2 6.4 0.00 0.00 0.00 97 1015.2
20260510111314 15 138 3.2 6.4 0.00 0.00 0.00 97 1015.2
20260510111241 15 140 1.6 6.4 0.00 0.00 0.00 97 1015.2
20260510111132 15 119 1.6 4.8 0.00 0.00 0.00 97 1015.2
20260510111019 15 142 3.2 4.8 0.00 0.00 0.00 97 1015.2
20260510110927 15 142 3.2 4.8 0.00 0.00 0.00 97 1015.2
20260510110836 15 142 1.6 4.8 0.00 0.00 0.00 97 1015.2
20260510110722 15 155 1.6 4.8 0.00 0.00 0.00 96 1015.2
20260510110629 15 155 1.6 4.8 0.00 0.00 0.00 96 1015.2
20260510110605 15 155 1.6 4.8 0.00 0.00 0.00 96 1015.1
20260510110319 15 155 1.6 4.8 0.00 0.00 0.00 96 1015.2
20260510110227 15 155 1.6 4.8 0.00 0.00 0.00 96 1015.2
20260510110134 15 155 0.0 0.0 0.00 0.00 0.00 96 1015.0
20260510110022 15 155 0.0 1.6 0.00 0.00 0.00 96 1015.0
20260510105953 15 155 0.0 1.6 0.00 0.00 0.00 96 1015.0
20260510105819 15 155 0.0 1.6 0.00 0.00 0.00 96 1014.9
20260510105747 15 155 0.0 1.6 0.00 0.00 0.00 96 1014.9
20260510105613 15 155 0.0 1.6 0.00 0.00 0.00 96 1014.9
20260510105521 15 155 0.0 1.6 0.00 0.00 0.00 96 1014.9
20260510105429 15 155 0.0 1.6 0.00 0.00 0.00 96 1014.9
20260510105319 15 155 0.0 1.6 0.00 0.00 0.00 96 1014.9
20260510105227 15 155 0.0 1.6 0.00 0.00 0.00 96 1014.9
20260510105154 15 155 1.6 1.6 0.00 0.00 0.00 96 1014.9
20260510105104 15 155 1.6 1.6 0.00 0.00 0.00 96 1014.8
20260510104818 15 155 1.6 1.6 0.00 0.00 0.00 96 1014.8
20260510104729 15 155 1.6 1.6 0.00 0.00 0.00 96 1014.8
20260510104616 15 155 0.0 1.6 0.00 0.00 0.00 96 1014.7
20260510104524 15 155 0.0 1.6 0.00 0.00 0.00 96 1014.7
20260510104432 15 155 0.0 1.6 0.00 0.00 0.00 96 1014.6
20260510104318 15 155 0.0 1.6 0.00 0.00 0.00 96 1014.7
20260510104230 15 155 0.0 1.6 0.00 0.00 0.00 96 1014.7
20260510104117 15 155 0.0 1.6 0.00 0.00 0.00 96 1014.6
20260510104024 15 155 0.0 1.6 0.00 0.00 0.00 96 1014.6
20260510103912 15 155 0.0 1.6 0.00 0.00 0.00 96 1014.6
20260510103819 15 155 1.6 1.6 0.00 0.00 0.00 96 1014.5
20260510103727 15 155 1.6 3.2 0.00 0.00 0.00 96 1014.5
20260510103620 15 155 1.6 3.2 0.00 0.00 0.00 96 1014.6
20260510103551 15 155 0.0 3.2 0.00 0.00 0.00 96 1014.5
20260510103324 15 155 0.0 4.8 0.00 0.00 0.00 96 1014.4
20260510103213 15 155 0.0 4.8 0.00 0.00 0.00 96 1014.4
20260510103124 15 155 0.0 4.8 0.00 0.00 0.00 96 1014.4
20260510103013 15 155 1.6 4.8 0.00 0.00 0.00 96 1014.5
20260510102921 15 155 1.6 4.8 0.00 0.00 0.00 96 1014.5
20260510102829 15 155 1.6 4.8 0.00 0.00 0.00 96 1014.3
20260510102716 15 155 1.6 4.8 0.00 0.00 0.00 96 1014.3
20260510102626 15 155 3.2 4.8 0.00 0.00 0.00 96 1014.3
20260510102514 15 158 3.2 4.8 0.00 0.00 0.00 96 1014.4
20260510102419 15 151 1.6 3.2 0.00 0.00 0.00 96 1014.4
20260510102328 15 151 1.6 4.8 0.00 0.00 0.00 96 1014.4
20260510102214 15 151 1.6 4.8 0.00 0.00 0.00 96 1014.4
20260510102121 15 151 1.6 4.8 0.00 0.00 0.00 96 1014.4
20260510102056 15 151 1.6 4.8 0.00 0.00 0.00 96 1014.4
20260510101829 15 151 1.6 4.8 0.00 0.00 0.00 96 1014.4
20260510101716 15 151 1.6 4.8 0.00 0.00 0.00 96 1014.3
20260510101624 14 151 3.2 4.8 0.00 0.00 0.00 96 1014.3
20260510101514 14 151 3.2 4.8 0.00 0.00 0.00 96 1014.3
20260510101422 14 151 3.2 4.8 0.00 0.00 0.00 96 1014.3
20260510101351 14 151 4.8 4.8 0.00 0.00 0.00 96 1014.2
20260510101218 14 142 3.2 4.8 0.00 0.00 0.00 96 1014.3
20260510101126 14 191 3.2 4.8 0.00 0.00 0.00 95 1014.3
20260510101012 14 191 3.2 3.2 0.00 0.00 0.00 95 1014.3
20260510100939 14 191 1.6 3.2 0.00 0.00 0.00 95 1014.4
20260510100830 14 191 1.6 3.2 0.00 0.00 0.00 95 1014.4
20260510100716 14 191 0.0 1.6 0.00 0.00 0.00 95 1014.4
20260510100625 14 191 0.0 1.6 0.00 0.00 0.00 95 1014.4
20260510100555 14 191 0.0 3.2 0.00 0.00 0.00 95 1014.4
20260510100313 14 191 0.0 3.2 0.00 0.00 0.00 95 1014.3
20260510100220 14 191 0.0 3.2 0.00 0.00 0.00 95 1014.3
20260510100127 14 191 0.0 3.2 0.00 0.00 0.00 95 1014.3
20260510100014 14 191 0.0 3.2 0.00 0.00 0.00 95 1014.2
20260510095943 14 191 1.6 3.2 0.00 0.00 0.00 95 1014.2
20260510095829 14 191 1.6 3.2 0.00 0.00 0.00 95 1014.2
20260510095721 14 191 1.6 3.2 0.00 0.00 0.00 95 1014.3
20260510095629 14 191 1.6 3.2 0.00 0.00 0.00 95 1014.3
20260510095516 14 191 1.6 3.2 0.00 0.00 0.00 95 1014.3
20260510095424 14 191 0.0 1.6 0.00 0.00 0.00 95 1014.3
20260510095330 14 191 0.0 1.6 0.00 0.00 0.00 95 1014.3
20260510095222 14 191 0.0 1.6 0.00 0.00 0.00 95 1014.3
20260510095128 14 191 0.0 1.6 0.00 0.00 0.00 95 1014.3
20260510095056 14 191 0.0 0.0 0.00 0.00 0.00 95 1014.1
20260510094849 14 191 0.0 0.0 0.00 0.00 0.00 95 1014.1
20260510094716 14 191 0.0 0.0 0.00 0.00 0.00 94 1014.2
20260510094623 14 191 0.0 0.0 0.00 0.00 0.00 94 1014.2
20260510094514 14 191 0.0 0.0 0.00 0.00 0.00 94 1014.3
20260510094421 14 191 0.0 0.0 0.00 0.00 0.00 94 1014.3
20260510094328 14 191 0.0 0.0 0.00 0.00 0.00 94 1014.1
20260510094216 14 191 0.0 0.0 0.00 0.00 0.00 94 1014.1
20260510094143 14 191 0.0 0.0 0.00 0.00 0.00 94 1014.1
20260510094014 14 191 0.0 0.0 0.00 0.00 0.00 94 1014.1
20260510093942 14 191 0.0 0.0 0.00 0.00 0.00 95 1014.1
20260510093827 14 191 0.0 0.0 0.00 0.00 0.00 95 1014.0
20260510093734 14 191 0.0 0.0 0.00 0.00 0.00 95 1014.1
20260510093640 14 191 0.0 0.0 0.00 0.00 0.00 95 1014.0
20260510093550 14 191 0.0 0.0 0.00 0.00 0.00 95 1014.0
20260510093328 14 191 0.0 0.0 0.00 0.00 0.00 95 1014.1
20260510093214 14 191 0.0 0.0 0.00 0.00 0.00 95 1014.0
20260510093123 14 191 0.0 0.0 0.00 0.00 0.00 95 1014.0
20260510093030 14 191 0.0 0.0 0.00 0.00 0.00 95 1014.1
20260510092919 14 191 0.0 0.0 0.00 0.00 0.00 95 1014.1
20260510092826 14 191 0.0 0.0 0.00 0.00 0.00 95 1014.1
20260510092737 14 191 0.0 0.0 0.00 0.00 0.00 95 1014.1
20260510092645 14 191 0.0 0.0 0.00 0.00 0.00 95 1014.1
20260510092531 14 191 0.0 0.0 0.00 0.00 0.00 95 1014.2
20260510092419 14 191 0.0 0.0 0.00 0.00 0.00 95 1014.2
20260510092346 14 191 0.0 0.0 0.00 0.00 0.00 95 1014.2
20260510092212 14 191 0.0 0.0 0.00 0.00 0.00 95 1014.2
20260510092124 14 191 0.0 0.0 0.00 0.00 0.00 95 1014.2
20260510092054 14 191 0.0 0.0 0.00 0.00 0.00 95 1014.2
20260510091847 14 191 0.0 0.0 0.00 0.00 0.00 95 1014.2
20260510091712 14 191 0.0 0.0 0.00 0.00 0.00 95 1014.1
20260510091640 14 191 0.0 0.0 0.00 0.00 0.00 94 1014.2
20260510091527 14 191 0.0 0.0 0.00 0.00 0.00 94 1014.2
20260510091418 14 191 0.0 0.0 0.00 0.00 0.00 94 1014.3
20260510091345 14 191 0.0 0.0 0.00 0.00 0.00 94 1014.3
20260510091232 14 191 0.0 0.0 0.00 0.00 0.00 94 1014.3
20260510091118 14 191 0.0 0.0 0.00 0.00 0.00 94 1014.2
20260510091027 14 191 0.0 0.0 0.00 0.00 0.00 94 1014.2
20260510090918 14 191 0.0 0.0 0.00 0.00 0.00 94 1014.3
20260510090826 14 191 0.0 0.0 0.00 0.00 0.00 94 1014.3
20260510090713 14 191 0.0 0.0 0.00 0.00 0.00 94 1014.4
20260510090620 14 191 0.0 0.0 0.00 0.00 0.00 94 1014.4
20260510090551 14 191 0.0 0.0 0.00 0.00 0.00 94 1014.3
20260510090330 15 191 0.0 0.0 0.00 0.00 0.00 94 1014.3
20260510090217 15 191 0.0 0.0 0.00 0.00 0.00 94 1014.3
20260510090126 15 191 0.0 0.0 0.00 0.00 0.00 94 1014.3
20260510090053 15 191 0.0 0.0 0.00 0.00 0.00 94 1014.3
20260510085918 15 191 0.0 0.0 0.00 0.00 0.00 94 1014.3
20260510085826 15 191 0.0 0.0 0.00 0.00 0.00 94 1014.3
20260510085716 15 191 0.0 0.0 0.00 0.00 0.00 94 1014.1
20260510085625 15 191 0.0 0.0 0.00 0.00 0.00 95 1014.1
20260510085531 15 191 0.0 0.0 0.00 0.00 0.00 95 1014.1
20260510085438 15 191 0.0 0.0 0.00 0.00 0.00 94 1014.2
20260510085324 15 191 0.0 0.0 0.00 0.00 0.00 94 1014.2
20260510085233 15 191 0.0 0.0 0.00 0.00 0.00 94 1014.1
20260510085205 15 191 0.0 0.0 0.00 0.00 0.00 94 1014.1
20260510085114 15 191 0.0 0.0 0.00 0.00 0.00 94 1014.0
20260510084827 15 191 0.0 0.0 0.00 0.00 0.00 94 1014.0
20260510084715 15 191 0.0 0.0 0.00 0.00 0.00 94 1014.0
20260510084622 15 191 0.0 0.0 0.00 0.00 0.00 94 1014.0
20260510084514 15 191 0.0 0.0 0.00 0.00 0.00 94 1013.9
20260510084421 15 191 0.0 0.0 0.00 0.00 0.00 95 1013.9
20260510084329 15 191 0.0 0.0 0.00 0.00 0.00 95 1014.0
20260510084218 15 191 0.0 0.0 0.00 0.00 0.00 95 1013.8
20260510084125 15 191 0.0 0.0 0.00 0.00 0.00 95 1013.8
20260510084018 15 191 0.0 3.2 0.00 0.00 0.00 95 1013.8
20260510083945 15 191 0.0 3.2 0.00 0.00 0.00 94 1013.8
20260510083831 15 191 0.0 3.2 0.00 0.00 0.00 94 1013.8
20260510083719 15 191 0.0 3.2 0.00 0.00 0.00 94 1013.7
20260510083625 15 191 0.0 4.8 0.00 0.00 0.00 94 1013.7
20260510083600 15 191 0.0 4.8 0.00 0.00 0.00 94 1013.8
20260510083313 15 191 1.6 4.8 0.00 0.00 0.00 94 1013.8
20260510083221 15 191 1.6 4.8 0.00 0.00 0.00 94 1013.8
20260510083128 15 191 1.6 4.8 0.00 0.00 0.00 94 1013.6
20260510083017 15 191 1.6 4.8 0.00 0.00 0.00 94 1013.6
20260510082929 15 191 3.2 4.8 0.00 0.00 0.00 94 1013.6
20260510082816 15 191 3.2 4.8 0.00 0.00 0.00 94 1013.5
20260510082724 15 194 3.2 4.8 0.00 0.00 0.00 94 1013.5
20260510082632 15 195 1.6 4.8 0.00 0.00 0.00 94 1013.5
20260510082518 15 211 0.0 0.0 0.00 0.00 0.00 94 1013.5
20260510082446 15 211 0.0 0.0 0.00 0.00 0.00 94 1013.5
20260510082316 15 297 0.0 0.0 0.00 0.00 0.00 94 1013.5
20260510082224 15 297 0.0 0.0 0.00 0.00 0.00 94 1013.5
20260510082123 15 297 0.0 0.0 0.00 0.00 0.00 94 1013.5
20260510081816 15 297 0.0 0.0 0.00 0.00 0.00 94 1013.5
20260510081726 15 297 0.0 0.0 0.00 0.00 0.00 94 1013.5
20260510081613 15 297 0.0 0.0 0.00 0.00 0.00 94 1013.4
20260510081541 15 297 0.0 0.0 0.00 0.00 0.00 94 1013.4
20260510081427 15 297 0.0 0.0 0.00 0.00 0.00 94 1013.4
20260510081314 15 297 0.0 0.0 0.00 0.00 0.00 94 1013.3
20260510081223 15 297 0.0 0.0 0.00 0.00 0.00 94 1013.3
20260510081114 15 297 0.0 0.0 0.00 0.00 0.00 94 1013.3
20260510081022 15 297 0.0 0.0 0.00 0.00 0.00 94 1013.3
20260510080927 15 297 0.0 0.0 0.00 0.00 0.00 94 1013.3
20260510080835 15 297 0.0 0.0 0.00 0.00 0.00 94 1013.3
20260510080721 15 297 0.0 0.0 0.00 0.00 0.00 94 1013.3
20260510080602 15 297 0.0 0.0 0.00 0.00 0.00 94 1013.3
20260510080315 15 297 0.0 0.0 0.00 0.00 0.00 94 1013.2
20260510080222 15 297 0.0 0.0 0.00 0.00 0.00 94 1013.2
20260510080130 15 297 0.0 0.0 0.00 0.00 0.00 93 1013.3
20260510080022 15 297 0.0 0.0 0.00 0.00 0.00 93 1013.3
20260510075929 15 297 0.0 0.0 0.00 0.00 0.00 93 1013.3
20260510075817 15 297 0.0 0.0 0.00 0.00 0.00 94 1013.3
20260510075725 15 297 0.0 0.0 0.00 0.00 0.00 93 1013.3
20260510075612 15 297 0.0 0.0 0.00 0.00 0.00 94 1013.3
20260510075523 15 297 0.0 0.0 0.00 0.00 0.00 94 1013.3
20260510075412 15 297 0.0 0.0 0.00 0.00 0.00 94 1013.2
20260510075320 15 297 0.0 0.0 0.00 0.00 0.00 94 1013.2
20260510075248 15 297 0.0 0.0 0.00 0.00 0.00 94 1013.2
20260510075134 15 297 0.0 0.0 0.00 0.00 0.00 94 1013.3
20260510075048 15 297 0.0 0.0 0.00 0.00 0.00 94 1013.3
20260510074822 15 297 0.0 0.0 0.00 0.00 0.00 94 1013.2
20260510074730 15 297 0.0 0.0 0.00 0.00 0.00 94 1013.2
20260510074638 15 297 0.0 0.0 0.00 0.00 0.00 93 1013.2
20260510074524 15 297 0.0 0.0 0.00 0.00 0.00 93 1013.2
20260510074412 15 297 0.0 0.0 0.00 0.00 0.00 93 1013.1
20260510074324 15 297 0.0 0.0 0.00 0.00 0.00 93 1013.1
20260510074232 15 297 0.0 0.0 0.00 0.00 0.00 93 1013.2
20260510074119 15 297 0.0 0.0 0.00 0.00 0.00 93 1013.1
20260510074026 15 297 0.0 0.0 0.00 0.00 0.00 93 1013.1
20260510073915 15 297 0.0 0.0 0.00 0.00 0.00 93 1013.2
20260510073843 15 297 0.0 0.0 0.00 0.00 0.00 93 1013.2
20260510073712 15 297 0.0 0.0 0.00 0.00 0.00 93 1013.2
20260510073620 15 297 0.0 0.0 0.00 0.00 0.00 93 1013.2
20260510073551 15 297 0.0 0.0 0.00 0.00 0.00 93 1013.2
20260510073325 15 297 0.0 0.0 0.00 0.00 0.00 93 1013.2
20260510073217 15 350 0.0 0.0 0.00 0.00 0.00 93 1013.2
20260510073124 15 350 0.0 0.0 0.00 0.00 0.00 93 1013.2
20260510073012 15 350 0.0 0.0 0.00 0.00 0.00 93 1013.2
20260510072919 15 350 0.0 0.0 0.00 0.00 0.00 93 1013.2
20260510072827 15 350 0.0 0.0 0.00 0.00 0.00 93 1013.2
20260510072714 15 350 0.0 0.0 0.00 0.00 0.00 93 1013.3
20260510072624 15 350 0.0 0.0 0.00 0.00 0.00 93 1013.3
20260510072512 15 350 0.0 0.0 0.00 0.00 0.00 93 1013.3
20260510072421 15 350 0.0 0.0 0.00 0.00 0.00 93 1013.3
20260510072327 15 350 0.0 0.0 0.00 0.00 0.00 93 1013.2
20260510072215 15 350 0.0 0.0 0.00 0.00 0.00 93 1013.3
20260510072143 15 350 0.0 0.0 0.00 0.00 0.00 93 1013.3
20260510072057 15 350 0.0 0.0 0.00 0.00 0.00 93 1013.2
20260510071831 15 350 0.0 0.0 0.00 0.00 0.00 93 1013.2
20260510071718 15 350 0.0 0.0 0.00 0.00 0.00 93 1013.2
20260510071625 15 350 0.0 0.0 0.00 0.00 0.00 93 1013.2
20260510071516 15 350 0.0 0.0 0.00 0.00 0.00 93 1013.3
20260510071423 15 350 0.0 0.0 0.00 0.00 0.00 93 1013.3
20260510071350 15 350 0.0 0.0 0.00 0.00 0.00 93 1013.3
20260510071218 15 350 0.0 0.0 0.00 0.00 0.00 93 1013.3
20260510071126 15 350 0.0 0.0 0.00 0.00 0.00 93 1013.3
20260510071015 15 350 0.0 0.0 0.00 0.00 0.00 93 1013.2
20260510070926 15 350 0.0 0.0 0.00 0.00 0.00 93 1013.2
20260510070833 15 350 0.0 0.0 0.00 0.00 0.00 93 1013.2
20260510070740 15 350 0.0 0.0 0.00 0.00 0.00 93 1013.3
20260510070648 15 350 0.0 0.0 0.00 0.00 0.00 93 1013.3
20260510070557 15 350 0.0 0.0 0.00 0.00 0.00 93 1013.2
20260510070314 15 350 0.0 0.0 0.00 0.00 0.00 93 1013.2
20260510070242 15 350 0.0 0.0 0.00 0.00 0.00 93 1013.2
20260510070128 15 350 0.0 0.0 0.00 0.00 0.00 93 1013.1
20260510070016 15 350 0.0 0.0 0.00 0.00 0.00 93 1013.2
20260510065944 15 350 0.0 0.0 0.00 0.00 0.00 93 1013.2
20260510065850 15 350 0.0 0.0 0.00 0.00 0.00 93 1013.2
20260510065716 15 350 0.0 0.0 0.00 0.00 0.00 93 1013.1
20260510065626 15 350 0.0 0.0 0.00 0.00 0.00 93 1013.1
20260510065514 15 350 0.0 0.0 0.00 0.00 0.00 92 1013.2
20260510065421 15 350 0.0 0.0 0.00 0.00 0.00 92 1013.2
20260510065329 15 350 0.0 0.0 0.00 0.00 0.00 92 1013.1
20260510065216 15 350 0.0 0.0 0.00 0.00 0.00 92 1013.2
20260510065057 16 350 0.0 0.0 0.00 0.00 0.00 92 1013.2
20260510064830 16 350 0.0 0.0 0.00 0.00 0.00 92 1013.1
20260510064717 16 350 0.0 0.0 0.00 0.00 0.00 92 1013.1
20260510064625 16 348 0.0 0.0 0.00 0.00 0.00 92 1013.1
20260510064517 16 238 0.0 0.0 0.00 0.00 0.00 92 1013.3
20260510064425 16 238 0.0 0.0 0.00 0.00 0.00 92 1013.3
20260510064313 16 238 0.0 0.0 0.00 0.00 0.00 92 1013.1
20260510064220 16 238 0.0 0.0 0.00 0.00 0.00 92 1013.1
20260510064127 16 238 0.0 0.0 0.00 0.00 0.00 92 1013.2
20260510064034 16 238 0.0 0.0 0.00 0.00 0.00 92 1013.2
20260510063925 16 238 0.0 0.0 0.00 0.00 0.00 92 1013.2
20260510063852 16 238 0.0 0.0 0.00 0.00 0.00 92 1013.2
20260510063719 16 238 0.0 0.0 0.00 0.00 0.00 92 1013.3
20260510063628 16 238 0.0 0.0 0.00 0.00 0.00 92 1013.3
20260510063558 16 238 0.0 0.0 0.00 0.00 0.00 92 1013.2
20260510063314 16 238 0.0 0.0 0.00 0.00 0.00 92 1013.3
20260510063223 16 238 0.0 0.0 0.00 0.00 0.00 92 1013.3
20260510063130 16 238 0.0 0.0 0.00 0.00 0.00 92 1013.3
20260510063017 16 238 0.0 0.0 0.00 0.00 0.00 91 1013.3
20260510062923 16 238 0.0 0.0 0.00 0.00 0.00 91 1013.3
20260510062814 16 238 0.0 0.0 0.00 0.00 0.00 91 1013.3
20260510062722 16 238 0.0 0.0 0.00 0.00 0.00 91 1013.3
20260510062630 16 238 0.0 0.0 0.00 0.00 0.00 91 1013.3
20260510062517 16 238 0.0 0.0 0.00 0.00 0.00 91 1013.3
20260510062444 16 238 0.0 0.0 0.00 0.00 0.00 91 1013.3
20260510062330 16 238 0.0 0.0 0.00 0.00 0.00 91 1013.3
20260510062222 16 238 0.0 0.0 0.00 0.00 0.00 91 1013.2
20260510062059 16 238 0.0 0.0 0.00 0.00 0.00 91 1013.3
20260510061813 16 138 0.0 0.0 0.00 0.00 0.00 91 1013.3
20260510061720 16 138 0.0 0.0 0.00 0.00 0.00 91 1013.3
20260510061631 16 138 0.0 0.0 0.00 0.00 0.00 91 1013.3
20260510061519 16 138 0.0 0.0 0.00 0.00 0.00 91 1013.3
20260510061427 16 138 0.0 0.0 0.00 0.00 0.00 91 1013.3
20260510061315 16 138 0.0 0.0 0.00 0.00 0.00 91 1013.3
20260510061222 16 138 0.0 0.0 0.00 0.00 0.00 91 1013.3
20260510061113 16 138 0.0 0.0 0.00 0.00 0.00 91 1013.3
20260510061021 16 138 0.0 0.0 0.00 0.00 0.00 91 1013.3
20260510060929 16 138 0.0 0.0 0.00 0.00 0.00 91 1013.2
20260510060836 16 138 0.0 0.0 0.00 0.00 0.00 91 1013.3
20260510060722 17 138 0.0 0.0 0.00 0.00 0.00 91 1013.3
20260510060650 17 138 0.0 0.0 0.00 0.00 0.00 91 1013.4
20260510060625 17 138 0.0 0.0 0.00 0.00 0.00 91 1013.3
20260510060317 17 138 0.0 0.0 0.00 0.00 0.00 92 1013.4
20260510060225 17 138 0.0 0.0 0.00 0.00 0.00 92 1013.4
20260510060113 17 138 0.0 0.0 0.00 0.00 0.00 92 1013.5
20260510060020 17 138 0.0 0.0 0.00 0.00 0.00 92 1013.5
20260510055931 17 138 0.0 0.0 0.00 0.00 0.00 92 1013.4
20260510055818 17 138 0.0 0.0 0.00 0.00 0.00 92 1013.4
20260510055745 17 138 0.0 0.0 0.00 0.00 0.00 92 1013.4
20260510055613 17 138 0.0 0.0 0.00 0.00 0.00 92 1013.4
20260510055520 17 138 0.0 0.0 0.00 0.00 0.00 91 1013.4
20260510055447 17 138 0.0 0.0 0.00 0.00 0.00 91 1013.5
20260510055334 17 138 0.0 0.0 0.00 0.00 0.00 91 1013.5
20260510055226 17 138 0.0 0.0 0.00 0.00 0.00 91 1013.5
20260510055154 17 138 0.0 0.0 0.00 0.00 0.00 91 1013.4
20260510055104 17 138 0.0 0.0 0.00 0.00 0.00 91 1013.4
20260510054837 17 138 0.0 0.0 0.00 0.00 0.00 92 1013.5
20260510054723 17 138 0.0 0.0 0.00 0.00 0.00 92 1013.5
20260510054615 17 138 0.0 0.0 0.00 0.00 0.00 91 1013.4
20260510054522 17 138 0.0 0.0 0.00 0.00 0.00 91 1013.4
20260510054430 17 138 0.0 0.0 0.00 0.00 0.00 91 1013.5
20260510054317 17 138 0.0 0.0 0.00 0.00 0.00 91 1013.4
20260510054224 17 138 0.0 0.0 0.00 0.00 0.00 91 1013.4
20260510054132 17 138 0.0 0.0 0.00 0.00 0.00 91 1013.5
20260510054023 17 138 0.0 0.0 0.00 0.00 0.00 91 1013.5
20260510053930 17 138 0.0 0.0 0.00 0.00 0.00 91 1013.4
20260510053818 17 138 0.0 0.0 0.00 0.00 0.00 91 1013.4
20260510053725 17 138 0.0 0.0 0.00 0.00 0.00 91 1013.4
20260510053612 17 138 0.0 0.0 0.00 0.00 0.00 91 1013.5
20260510053547 17 138 0.0 0.0 0.00 0.00 0.00 91 1013.5
20260510053321 17 138 0.0 0.0 0.00 0.00 0.00 91 1013.4
20260510053228 17 138 0.0 0.0 0.00 0.00 0.00 91 1013.4
20260510053134 17 138 0.0 0.0 0.00 0.00 0.00 91 1013.4
20260510053021 17 138 0.0 0.0 0.00 0.00 0.00 91 1013.5
20260510052934 17 138 0.0 0.0 0.00 0.00 0.00 91 1013.5
20260510052820 17 138 0.0 0.0 0.00 0.00 0.00 91 1013.5
20260510052727 17 138 0.0 0.0 0.00 0.00 0.00 91 1013.5
20260510052615 17 138 0.0 0.0 0.00 0.00 0.00 91 1013.5
20260510052522 17 138 0.0 0.0 0.00 0.00 0.00 91 1013.4
20260510052429 17 138 0.0 0.0 0.00 0.00 0.00 91 1013.4
20260510052321 17 175 0.0 0.0 0.00 0.00 0.00 91 1013.5
20260510052229 17 175 0.0 0.0 0.00 0.00 0.00 91 1013.5
20260510052118 17 175 0.0 0.0 0.00 0.00 0.00 91 1013.5
20260510052049 17 175 0.0 0.0 0.00 0.00 0.00 91 1013.5
20260510051828 17 175 0.0 0.0 0.00 0.00 0.00 91 1013.5
20260510051715 17 175 0.0 0.0 0.00 0.00 0.00 91 1013.4
20260510051622 17 175 0.0 0.0 0.00 0.00 0.00 91 1013.4
20260510051529 17 175 0.0 0.0 0.00 0.00 0.00 91 1013.5
20260510051416 17 175 0.0 0.0 0.00 0.00 0.00 91 1013.5
20260510051323 17 175 0.0 0.0 0.00 0.00 0.00 91 1013.5
20260510051214 17 175 0.0 0.0 0.00 0.00 0.00 91 1013.4
20260510051121 17 175 0.0 0.0 0.00 0.00 0.00 91 1013.3
20260510051029 17 175 0.0 0.0 0.00 0.00 0.00 91 1013.3
20260510050916 17 175 0.0 0.0 0.00 0.00 0.00 91 1013.4
20260510050823 17 175 0.0 0.0 0.00 0.00 0.00 91 1013.4
20260510050714 17 175 0.0 0.0 0.00 0.00 0.00 91 1013.4
20260510050622 17 175 0.0 0.0 0.00 0.00 0.00 91 1013.4
20260510050553 17 175 0.0 0.0 0.00 0.00 0.00 90 1013.4
20260510050326 17 175 0.0 0.0 0.00 0.00 0.00 89 1013.3
20260510050235 17 175 0.0 0.0 0.00 0.00 0.00 89 1013.3
20260510050145 17 175 0.0 0.0 0.00 0.00 0.00 89 1013.3
20260510050032 17 175 0.0 0.0 0.00 0.00 0.00 89 1013.4
20260510045939 17 175 0.0 0.0 0.00 0.00 0.00 89 1013.3
20260510045824 17 175 0.0 0.0 0.00 0.00 0.00 89 1013.3
20260510045752 17 175 0.0 0.0 0.00 0.00 0.00 89 1013.4
20260510045618 17 175 0.0 0.0 0.00 0.00 0.00 89 1013.3
20260510045526 17 175 0.0 0.0 0.00 0.00 0.00 89 1013.3
20260510045418 17 175 0.0 0.0 0.00 0.00 0.00 89 1013.3
20260510045326 17 175 0.0 0.0 0.00 0.00 0.00 89 1013.3
20260510045213 17 175 0.0 0.0 0.00 0.00 0.00 89 1013.3
20260510045121 17 175 0.0 0.0 0.00 0.00 0.00 88 1013.4
20260510045056 17 175 0.0 0.0 0.00 0.00 0.00 89 1013.4
20260510044830 17 175 0.0 0.0 0.00 0.00 0.00 89 1013.4
20260510044716 17 175 0.0 0.0 0.00 0.00 0.00 89 1013.5
20260510044624 17 175 0.0 0.0 0.00 0.00 0.00 89 1013.5
20260510044531 17 175 0.0 0.0 0.00 0.00 0.00 89 1013.5
20260510044439 18 175 0.0 0.0 0.00 0.00 0.00 89 1013.4
20260510044328 18 175 0.0 0.0 0.00 0.00 0.00 89 1013.4
20260510044216 18 175 0.0 0.0 0.00 0.00 0.00 89 1013.5
20260510044122 18 175 0.0 0.0 0.00 0.00 0.00 89 1013.5
20260510044031 18 175 0.0 0.0 0.00 0.00 0.00 89 1013.4
20260510043939 18 175 0.0 0.0 0.00 0.00 0.00 89 1013.4
20260510043827 18 175 0.0 0.0 0.00 0.00 0.00 88 1013.4
20260510043718 18 175 0.0 0.0 0.00 0.00 0.00 88 1013.5
20260510043645 18 175 0.0 0.0 0.00 0.00 0.00 88 1013.5
20260510043554 18 175 0.0 0.0 0.00 0.00 0.00 88 1013.5
20260510043348 18 175 0.0 0.0 0.00 0.00 0.00 88 1013.5
20260510043233 18 175 0.0 0.0 0.00 0.00 0.00 88 1013.6
20260510043119 18 175 0.0 0.0 0.00 0.00 0.00 88 1013.6
20260510043029 18 175 0.0 0.0 0.00 0.00 0.00 88 1013.6
20260510042916 18 175 0.0 0.0 0.00 0.00 0.00 89 1013.7
20260510042824 18 175 0.0 0.0 0.00 0.00 0.00 89 1013.7
20260510042751 18 175 0.0 0.0 0.00 0.00 0.00 88 1013.6
20260510042617 18 175 0.0 0.0 0.00 0.00 0.00 88 1013.6
20260510042525 18 175 0.0 0.0 0.00 0.00 0.00 88 1013.6
20260510042435 18 175 0.0 0.0 0.00 0.00 0.00 88 1013.7
20260510042321 18 175 0.0 0.0 0.00 0.00 0.00 88 1013.6
20260510042228 18 175 0.0 0.0 0.00 0.00 0.00 88 1013.6
20260510042114 18 175 0.0 0.0 0.00 0.00 0.00 88 1013.7
20260510042050 18 175 0.0 0.0 0.00 0.00 0.00 88 1013.7
20260510041823 18 175 0.0 0.0 0.00 0.00 0.00 88 1013.6
20260510041730 18 175 0.0 0.0 0.00 0.00 0.00 88 1013.7
20260510041617 18 175 0.0 0.0 0.00 0.00 0.00 88 1013.7
20260510041526 18 175 0.0 0.0 0.00 0.00 0.00 88 1013.7
20260510041414 18 175 0.0 0.0 0.00 0.00 0.00 89 1013.7
20260510041326 18 175 0.0 0.0 0.00 0.00 0.00 89 1013.7
20260510041214 18 175 0.0 0.0 0.00 0.00 0.00 89 1013.7
20260510041123 18 175 0.0 0.0 0.00 0.00 0.00 88 1013.7
20260510041030 18 175 0.0 0.0 0.00 0.00 0.00 88 1013.7
20260510040918 18 175 0.0 0.0 0.00 0.00 0.00 88 1013.6
20260510040829 18 175 0.0 0.0 0.00 0.00 0.00 88 1013.6
20260510040718 18 175 0.0 0.0 0.00 0.00 0.00 88 1013.6
20260510040624 18 175 0.0 0.0 0.00 0.00 0.00 88 1013.6
20260510040556 18 175 0.0 0.0 0.00 0.00 0.00 88 1013.5
20260510040349 18 175 0.0 0.0 0.00 0.00 0.00 88 1013.6
20260510040220 18 175 0.0 0.0 0.00 0.00 0.00 88 1013.6
20260510040149 18 175 0.0 0.0 0.00 0.00 0.00 88 1013.6
20260510040017 18 175 0.0 0.0 0.00 0.00 0.00 88 1013.7
20260510035923 18 175 0.0 0.0 0.00 0.00 0.00 87 1013.7
20260510035812 18 163 0.0 0.0 0.00 0.00 0.00 87 1013.7
20260510035720 18 163 0.0 1.6 0.00 0.00 0.00 87 1013.5
20260510035612 18 163 0.0 1.6 0.00 0.00 0.00 87 1013.5
20260510035518 18 163 0.0 1.6 0.00 0.00 0.00 87 1013.6
20260510035427 18 163 0.0 1.6 0.00 0.00 0.00 87 1013.6
20260510035316 18 163 0.0 1.6 0.00 0.00 0.00 87 1013.5
20260510035223 18 163 0.0 1.6 0.00 0.00 0.00 87 1013.5
20260510035115 18 163 0.0 1.6 0.00 0.00 0.00 87 1013.5
20260510035046 18 163 0.0 1.6 0.00 0.00 0.00 87 1013.5
20260510034819 18 163 0.0 1.6 0.00 0.00 0.00 87 1013.6
20260510034748 18 163 0.0 1.6 0.00 0.00 0.00 87 1013.6
20260510034633 18 163 0.0 1.6 0.00 0.00 0.00 86 1013.5
20260510034520 18 163 0.0 1.6 0.00 0.00 0.00 86 1013.6
20260510034431 18 163 0.0 3.2 0.00 0.00 0.00 86 1013.6
20260510034318 18 163 0.0 3.2 0.00 0.00 0.00 86 1013.5
20260510034245 18 163 0.0 3.2 0.00 0.00 0.00 86 1013.5
20260510034131 18 163 0.0 3.2 0.00 0.00 0.00 86 1013.5
20260510034018 18 182 0.0 3.2 0.00 0.00 0.00 86 1013.5
20260510033925 18 182 0.0 3.2 0.00 0.00 0.00 86 1013.5
20260510033817 18 182 0.0 4.8 0.00 0.00 0.00 86 1013.5
20260510033725 18 182 0.0 4.8 0.00 0.00 0.00 86 1013.5
20260510033633 18 172 1.6 4.8 0.00 0.00 0.00 86 1013.5
20260510033603 18 172 1.6 4.8 0.00 0.00 0.00 86 1013.5
20260510033322 19 197 0.0 4.8 0.00 0.00 0.00 86 1013.5
20260510033229 19 197 0.0 4.8 0.00 0.00 0.00 86 1013.5
20260510033116 19 197 0.0 4.8 0.00 0.00 0.00 86 1013.6
20260510033023 19 197 1.6 4.8 0.00 0.00 0.00 86 1013.6
20260510032930 19 197 1.6 4.8 0.00 0.00 0.00 86 1013.7
20260510032822 19 205 1.6 4.8 0.00 0.00 0.00 86 1013.6
20260510032730 19 192 1.6 6.4 0.00 0.00 0.00 86 1013.6
20260510032637 19 191 3.2 6.4 0.00 0.00 0.00 86 1013.6
20260510032522 19 188 3.2 6.4 0.00 0.00 0.00 86 1013.6
20260510032430 19 215 3.2 6.4 0.00 0.00 0.00 85 1013.6
20260510032316 19 192 1.6 6.4 0.00 0.00 0.00 85 1013.5
20260510032227 19 209 3.2 6.4 0.00 0.00 0.00 85 1013.5
20260510032135 19 201 3.2 6.4 0.00 0.00 0.00 85 1013.5
20260510032106 19 195 3.2 6.4 0.00 0.00 0.00 85 1013.6
20260510031819 19 206 3.2 8.0 0.00 0.00 0.00 85 1013.6
20260510031726 19 206 3.2 8.0 0.00 0.00 0.00 85 1013.6
20260510031618 19 206 3.2 8.0 0.00 0.00 0.00 85 1013.5
20260510031525 19 200 3.2 8.0 0.00 0.00 0.00 85 1013.5
20260510031414 19 202 4.8 8.0 0.00 0.00 0.00 85 1013.7
20260510031322 19 174 4.8 8.0 0.00 0.00 0.00 85 1013.7
20260510031228 19 180 3.2 8.0 0.00 0.00 0.00 85 1013.5
20260510031119 19 188 3.2 8.0 0.00 0.00 0.00 85 1013.5
20260510031025 19 203 3.2 6.4 0.00 0.00 0.00 85 1013.5
20260510030953 19 234 3.2 6.4 0.00 0.00 0.00 85 1013.6
20260510030817 19 215 4.8 6.4 0.00 0.00 0.00 85 1013.6
20260510030724 19 192 3.2 6.4 0.00 0.00 0.00 84 1013.6
20260510030613 19 194 3.2 4.8 0.00 0.00 0.00 84 1013.4
20260510030547 19 213 1.6 4.8 0.00 0.00 0.00 84 1013.4
20260510030341 19 205 3.2 8.0 0.00 0.00 0.00 84 1013.5
20260510030247 19 227 3.2 8.0 0.00 0.00 0.00 84 1013.5
20260510030112 19 216 1.6 8.0 0.00 0.00 0.00 84 1013.5
20260510030040 20 190 1.6 8.0 0.00 0.00 0.00 84 1013.5
20260510025948 20 190 1.6 8.0 0.00 0.00 0.00 84 1013.5
20260510025818 20 196 3.2 8.0 0.00 0.00 0.00 84 1013.5
20260510025746 20 217 4.8 8.0 0.00 0.00 0.00 84 1013.5
20260510025613 20 215 4.8 8.0 0.00 0.00 0.00 84 1013.4
20260510025521 20 196 4.8 8.0 0.00 0.00 0.00 84 1013.4
20260510025427 20 202 4.8 8.0 0.00 0.00 0.00 84 1013.4
20260510025314 20 198 4.8 8.0 0.00 0.00 0.00 84 1013.3
20260510025227 20 198 4.8 8.0 0.00 0.00 0.00 83 1013.3
20260510025154 20 205 3.2 8.0 0.00 0.00 0.00 83 1013.2
20260510025102 20 205 4.8 8.0 0.00 0.00 0.00 83 1013.2
20260510024816 20 201 6.4 9.7 0.00 0.00 0.00 83 1013.2
20260510024722 20 221 6.4 9.7 0.00 0.00 0.00 83 1013.2
20260510024614 20 190 4.8 9.7 0.00 0.00 0.00 83 1013.2
20260510024522 20 232 4.8 9.7 0.00 0.00 0.00 83 1013.2
20260510024429 20 163 4.8 9.7 0.00 0.00 0.00 83 1013.2
20260510024316 20 205 4.8 9.7 0.00 0.00 0.00 83 1013.2
20260510024223 20 188 6.4 9.7 0.00 0.00 0.00 83 1013.2
20260510024116 20 202 4.8 9.7 0.00 0.00 0.00 83 1013.2
20260510024022 20 188 4.8 9.7 0.00 0.00 0.00 83 1013.2
20260510023931 20 205 4.8 9.7 0.00 0.00 0.00 83 1013.2
20260510023838 20 199 6.4 9.7 0.00 0.00 0.00 83 1013.1
20260510023724 20 200 6.4 9.7 0.00 0.00 0.00 82 1013.1
20260510023612 20 173 4.8 9.7 0.00 0.00 0.00 82 1013.1
20260510023546 20 192 4.8 9.7 0.00 0.00 0.00 82 1013.1
20260510023320 20 192 3.2 8.0 0.00 0.00 0.00 82 1013.1
20260510023226 20 175 4.8 8.0 0.00 0.00 0.00 82 1013.1
20260510023114 20 217 4.8 6.4 0.00 0.00 0.00 82 1013.1
20260510023021 20 173 4.8 6.4 0.00 0.00 0.00 82 1013.0
20260510022931 20 189 3.2 6.4 0.00 0.00 0.00 81 1013.0
20260510022819 20 185 4.8 6.4 0.00 0.00 0.00 81 1012.9
20260510022727 20 198 4.8 6.4 0.00 0.00 0.00 81 1012.9
20260510022615 20 176 3.2 6.4 0.00 0.00 0.00 81 1012.9
20260510022543 20 202 3.2 6.4 0.00 0.00 0.00 81 1012.9
20260510022414 20 212 3.2 6.4 0.00 0.00 0.00 81 1012.9
20260510022322 20 200 3.2 6.4 0.00 0.00 0.00 81 1012.9
20260510022228 20 169 3.2 6.4 0.00 0.00 0.00 81 1012.9
20260510022116 20 187 3.2 6.4 0.00 0.00 0.00 81 1012.8
20260510022046 20 178 1.6 4.8 0.00 0.00 0.00 81 1012.8
20260510021824 20 180 0.0 4.8 0.00 0.00 0.00 80 1012.7
20260510021712 20 181 1.6 4.8 0.00 0.00 0.00 80 1012.7
20260510021619 20 181 1.6 4.8 0.00 0.00 0.00 80 1012.7
20260510021526 20 184 1.6 4.8 0.00 0.00 0.00 80 1012.7
20260510021414 20 174 1.6 4.8 0.00 0.00 0.00 80 1012.7
20260510021325 20 187 1.6 4.8 0.00 0.00 0.00 80 1012.7
20260510021212 20 175 1.6 4.8 0.00 0.00 0.00 80 1012.6
20260510021140 20 180 1.6 4.8 0.00 0.00 0.00 79 1012.5
20260510021026 20 149 1.6 4.8 0.00 0.00 0.00 79 1012.5
20260510020914 20 149 0.0 4.8 0.00 0.00 0.00 79 1012.4
20260510020821 20 149 0.0 4.8 0.00 0.00 0.00 79 1012.5
20260510020733 20 137 1.6 4.8 0.00 0.00 0.00 79 1012.5
20260510020701 20 137 1.6 4.8 0.00 0.00 0.00 79 1012.4
20260510020612 20 137 1.6 4.8 0.00 0.00 0.00 79 1012.4
20260510020325 21 184 1.6 6.4 0.00 0.00 0.00 79 1012.3
20260510020213 21 178 0.0 6.4 0.00 0.00 0.00 79 1012.3
20260510020125 21 178 0.0 6.4 0.00 0.00 0.00 79 1012.3
20260510020012 21 178 1.6 6.4 0.00 0.00 0.00 79 1012.3
20260510015921 21 178 1.6 6.4 0.00 0.00 0.00 79 1012.2
20260510015829 21 192 3.2 6.4 0.00 0.00 0.00 79 1012.2
20260510015737 21 201 3.2 6.4 0.00 0.00 0.00 79 1012.2
20260510015623 21 184 3.2 8.0 0.00 0.00 0.00 78 1012.2
20260510015514 21 202 3.2 8.0 0.00 0.00 0.00 78 1012.2
20260510015421 21 173 3.2 8.0 0.00 0.00 0.00 78 1012.3
20260510015329 21 200 1.6 8.0 0.00 0.00 0.00 78 1012.3
20260510015216 21 207 1.6 8.0 0.00 0.00 0.00 78 1012.1
20260510015124 21 175 3.2 8.0 0.00 0.00 0.00 78 1012.1
20260510015058 21 175 3.2 8.0 0.00 0.00 0.00 78 1012.2
20260510014812 21 190 3.2 11.3 0.00 0.00 0.00 78 1012.1
20260510014739 21 170 3.2 11.3 0.00 0.00 0.00 78 1012.0
20260510014625 21 208 3.2 11.3 0.00 0.00 0.00 78 1012.0
20260510014533 21 153 3.2 11.3 0.00 0.00 0.00 78 1012.0
20260510014420 21 180 4.8 11.3 0.00 0.00 0.00 78 1011.9
20260510014351 21 141 4.8 11.3 0.00 0.00 0.00 78 1011.9
20260510014218 21 157 4.8 11.3 0.00 0.00 0.00 78 1012.0
20260510014124 21 153 6.4 11.3 0.00 0.00 0.00 78 1012.0
20260510014012 21 141 4.8 8.0 0.00 0.00 0.00 78 1012.0
20260510013918 21 142 4.8 8.0 0.00 0.00 0.00 78 1011.9
20260510013827 21 130 4.8 8.0 0.00 0.00 0.00 78 1011.9
20260510013739 21 153 4.8 8.0 0.00 0.00 0.00 78 1011.9
20260510013706 21 141 4.8 8.0 0.00 0.00 0.00 78 1011.8
20260510013616 21 157 4.8 9.7 0.00 0.00 0.00 78 1011.8
20260510013328 21 141 3.2 9.7 0.00 0.00 0.00 78 1011.8
20260510013216 21 155 3.2 9.7 0.00 0.00 0.00 78 1011.8
20260510013128 21 130 3.2 9.7 0.00 0.00 0.00 77 1011.8
20260510013016 21 150 3.2 9.7 0.00 0.00 0.00 77 1011.8
20260510012924 21 127 4.8 9.7 0.00 0.00 0.00 77 1011.8
20260510012833 21 153 3.2 11.3 0.00 0.00 0.00 77 1011.7
20260510012719 21 149 3.2 11.3 0.00 0.00 0.00 77 1011.7
20260510012626 21 124 4.8 11.3 0.00 0.00 0.00 77 1011.7
20260510012519 21 128 3.2 11.3 0.00 0.00 0.00 77 1011.7
20260510012426 21 102 3.2 11.3 0.00 0.00 0.00 77 1011.7
20260510012314 21 157 4.8 11.3 0.00 0.00 0.00 77 1011.6
20260510012221 21 130 6.4 11.3 0.00 0.00 0.00 76 1011.6
20260510012127 21 125 6.4 11.3 0.00 0.00 0.00 76 1011.6
20260510012101 21 139 6.4 11.3 0.00 0.00 0.00 76 1011.6
20260510011814 21 135 3.2 9.7 0.00 0.00 0.00 76 1011.5
20260510011726 21 137 3.2 8.0 0.00 0.00 0.00 77 1011.5
20260510011650 21 136 3.2 11.3 0.00 0.00 0.00 76 1011.5
20260510011538 21 153 4.8 14.5 0.00 0.00 0.00 76 1011.6
20260510011425 21 130 4.8 14.5 0.00 0.00 0.00 76 1011.6
20260510011315 21 126 3.2 14.5 0.00 0.00 0.00 76 1011.6
20260510011223 21 136 3.2 14.5 0.00 0.00 0.00 76 1011.6
20260510011131 21 126 4.8 14.5 0.00 0.00 0.00 76 1011.6
20260510011017 21 156 6.4 14.5 0.00 0.00 0.00 76 1011.6
20260510010926 21 129 8.0 14.5 0.00 0.00 0.00 76 1011.6
20260510010818 21 142 9.7 14.5 0.00 0.00 0.00 76 1011.5
20260510010725 21 136 8.0 14.5 0.00 0.00 0.00 76 1011.5
20260510010654 21 123 8.0 14.5 0.00 0.00 0.00 76 1011.5
20260510010602 21 112 6.4 12.9 0.00 0.00 0.00 76 1011.5
20260510010316 22 146 6.4 11.3 0.00 0.00 0.00 75 1011.4
20260510010244 22 138 4.8 9.7 0.00 0.00 0.00 75 1011.4
20260510010115 22 133 4.8 8.0 0.00 0.00 0.00 75 1011.4
20260510010022 22 152 4.8 8.0 0.00 0.00 0.00 75 1011.4
20260510005950 22 152 3.2 8.0 0.00 0.00 0.00 75 1011.3
20260510005818 22 126 3.2 11.3 0.00 0.00 0.00 75 1011.3
20260510005724 22 150 3.2 11.3 0.00 0.00 0.00 75 1011.3
20260510005616 22 136 3.2 11.3 0.00 0.00 0.00 75 1011.3
20260510005524 22 205 3.2 11.3 0.00 0.00 0.00 75 1011.3
20260510005431 22 183 4.8 11.3 0.00 0.00 0.00 75 1011.2
20260510005318 22 154 4.8 11.3 0.00 0.00 0.00 75 1011.3
20260510005225 22 177 4.8 11.3 0.00 0.00 0.00 74 1011.3
20260510005112 22 190 6.4 11.3 0.00 0.00 0.00 74 1011.2
20260510005047 22 198 6.4 11.3 0.00 0.00 0.00 74 1011.2
20260510004822 22 136 6.4 11.3 0.00 0.00 0.00 74 1011.2
20260510004728 22 146 6.4 11.3 0.00 0.00 0.00 74 1011.3
20260510004617 22 140 4.8 11.3 0.00 0.00 0.00 74 1011.2
20260510004528 22 158 4.8 11.3 0.00 0.00 0.00 74 1011.2
20260510004415 22 143 6.4 14.5 0.00 0.00 0.00 74 1011.1
20260510004342 22 202 6.4 14.5 0.00 0.00 0.00 74 1011.1
20260510004230 22 196 6.4 14.5 0.00 0.00 0.00 74 1011.1
20260510004117 22 189 6.4 14.5 0.00 0.00 0.00 73 1011.1
20260510004044 22 202 6.4 14.5 0.00 0.00 0.00 73 1011.1
20260510003914 22 178 6.4 14.5 0.00 0.00 0.00 73 1011.0
20260510003821 22 178 6.4 14.5 0.00 0.00 0.00 73 1010.9
20260510003728 22 179 6.4 14.5 0.00 0.00 0.00 73 1010.9
20260510003635 22 186 6.4 9.7 0.00 0.00 0.00 73 1011.0
20260510003605 22 195 4.8 9.7 0.00 0.00 0.00 73 1010.9
20260510003322 22 197 3.2 9.7 0.00 0.00 0.00 73 1011.0
20260510003229 22 163 4.8 9.7 0.00 0.00 0.00 73 1010.9
20260510003117 22 196 6.4 9.7 0.00 0.00 0.00 72 1010.9
20260510003044 22 205 6.4 9.7 0.00 0.00 0.00 72 1010.9
20260510002930 22 210 6.4 11.3 0.00 0.00 0.00 72 1010.8
20260510002818 22 197 6.4 11.3 0.00 0.00 0.00 72 1010.8
20260510002729 22 198 6.4 11.3 0.00 0.00 0.00 72 1010.8
20260510002616 22 224 6.4 11.3 0.00 0.00 0.00 72 1010.8
20260510002544 22 196 6.4 11.3 0.00 0.00 0.00 72 1010.8
20260510002431 22 199 6.4 11.3 0.00 0.00 0.00 72 1010.7
20260510002319 22 199 4.8 11.3 0.00 0.00 0.00 71 1010.8
20260510002226 23 208 4.8 11.3 0.00 0.00 0.00 71 1010.8
20260510002137 23 210 3.2 11.3 0.00 0.00 0.00 71 1010.8
20260510002047 23 167 3.2 11.3 0.00 0.00 0.00 70 1010.8
20260510001820 23 166 3.2 12.9 0.00 0.00 0.00 69 1010.8
20260510001728 23 191 4.8 12.9 0.00 0.00 0.00 69 1010.8
20260510001636 23 194 6.4 12.9 0.00 0.00 0.00 69 1010.6
20260510001526 23 211 8.0 12.9 0.00 0.00 0.00 69 1010.6
20260510001415 23 165 8.0 12.9 0.00 0.00 0.00 69 1010.7
20260510001322 23 186 8.0 12.9 0.00 0.00 0.00 68 1010.7
20260510001231 23 178 8.0 12.9 0.00 0.00 0.00 68 1010.7
20260510001118 23 165 6.4 11.3 0.00 0.00 0.00 67 1010.7
20260510001030 23 188 6.4 9.7 0.00 0.00 0.00 66 1010.7
20260510000917 23 178 3.2 8.0 0.00 0.00 0.00 66 1010.7
20260510000845 23 204 3.2 6.4 0.00 0.00 0.00 65 1010.7
20260510000733 23 203 1.6 4.8 0.00 0.00 0.00 64 1010.7
20260510000619 23 203 1.6 4.8 0.00 0.00 0.00 65 1010.7
20260510000554 23 203 1.6 4.8 0.00 0.00 0.00 65 1010.7
20260510000328 23 348 1.6 3.2 0.00 0.00 0.00 65 1010.6
20260510000218 23 348 1.6 1.6 0.00 0.00 0.00 65 1010.6
20260510000124 23 348 0.0 1.6 0.00 0.00 0.00 65 1010.6
20260510000052 23 348 0.0 1.6 0.00 0.00 0.00 65 1010.7
20260509235920 23 348 0.0 1.6 0.00 0.00 0.00 64 1010.6
20260509235831 23 348 0.0 1.6 0.00 0.00 0.00 63 1010.6
20260509235718 23 348 0.0 1.6 0.00 0.00 0.00 63 1010.6
20260509235625 23 348 0.0 1.6 0.00 0.00 0.00 63 1010.6
20260509235531 23 348 0.0 1.6 0.00 0.00 0.00 62 1010.5
20260509235439 23 348 0.0 1.6 0.00 0.00 0.00 63 1010.5
20260509235326 23 348 0.0 0.0 0.00 0.00 0.00 63 1010.5
20260509235238 23 348 0.0 1.6 0.00 0.00 0.00 62 1010.5
20260509235123 23 348 0.0 1.6 0.00 0.00 0.00 63 1010.5
20260509235054 23 348 0.0 1.6 0.00 0.00 0.00 62 1010.5
20260509234827 23 348 0.0 1.6 0.00 0.00 0.00 63 1010.5
20260509234714 23 348 0.0 1.6 0.00 0.00 0.00 63 1010.6
20260509234627 23 348 0.0 1.6 0.00 0.00 0.00 64 1010.6
20260509234533 23 348 0.0 1.6 0.00 0.00 0.00 64 1010.5
20260509234420 23 348 0.0 1.6 0.00 0.00 0.00 64 1010.4
20260509234326 23 348 0.0 1.6 0.00 0.00 0.00 63 1010.4
20260509234213 23 348 0.0 4.8 0.00 0.00 0.00 63 1010.4
20260509234121 23 348 0.0 4.8 0.00 0.00 0.00 63 1010.5
20260509234032 23 348 0.0 4.8 0.00 0.00 0.00 63 1010.5
20260509233920 23 348 0.0 4.8 0.00 0.00 0.00 63 1010.4
20260509233828 23 348 0.0 4.8 0.00 0.00 0.00 63 1010.4
20260509233715 23 348 1.6 4.8 0.00 0.00 0.00 63 1010.3
20260509233622 23 348 1.6 4.8 0.00 0.00 0.00 63 1010.3
20260509233557 23 348 3.2 4.8 0.00 0.00 0.00 63 1010.3
20260509233331 23 348 3.2 4.8 0.00 0.00 0.00 62 1010.2
20260509233219 24 344 1.6 4.8 0.00 0.00 0.00 62 1010.2
20260509233126 23 321 1.6 4.8 0.00 0.00 0.00 62 1010.2
20260509233017 24 321 3.2 4.8 0.00 0.00 0.00 62 1010.4
20260509232945 24 321 3.2 4.8 0.00 0.00 0.00 62 1010.4
20260509232852 24 312 3.2 4.8 0.00 0.00 0.00 63 1010.4
20260509232718 24 304 1.6 3.2 0.00 0.00 0.00 62 1010.4
20260509232626 24 304 1.6 3.2 0.00 0.00 0.00 62 1010.4
20260509232513 24 304 0.0 4.8 0.00 0.00 0.00 63 1010.5
20260509232420 24 304 1.6 4.8 0.00 0.00 0.00 63 1010.6
20260509232312 24 304 1.6 4.8 0.00 0.00 0.00 63 1010.5
20260509232220 24 304 1.6 4.8 0.00 0.00 0.00 63 1010.5
20260509232128 24 304 1.6 4.8 0.00 0.00 0.00 62 1010.5
20260509232058 24 304 1.6 4.8 0.00 0.00 0.00 62 1010.6
20260509231816 24 304 3.2 4.8 0.00 0.00 0.00 62 1010.6
20260509231724 24 306 3.2 4.8 0.00 0.00 0.00 62 1010.6
20260509231612 24 306 3.2 4.8 0.00 0.00 0.00 62 1010.5
20260509231518 24 299 1.6 4.8 0.00 0.00 0.00 62 1010.5
20260509231447 24 294 1.6 4.8 0.00 0.00 0.00 62 1010.5
20260509231314 24 286 1.6 6.4 0.00 0.00 0.00 62 1010.5
20260509231226 24 286 1.6 6.4 0.00 0.00 0.00 62 1010.5
20260509231113 24 263 1.6 6.4 0.00 0.00 0.00 63 1010.5
20260509231021 24 255 1.6 8.0 0.00 0.00 0.00 63 1010.4
20260509230930 24 255 1.6 8.0 0.00 0.00 0.00 63 1010.4
20260509230837 24 271 3.2 8.0 0.00 0.00 0.00 62 1010.4
20260509230723 24 273 3.2 8.0 0.00 0.00 0.00 62 1010.4
20260509230635 24 300 3.2 8.0 0.00 0.00 0.00 61 1010.4
20260509230605 24 348 3.2 8.0 0.00 0.00 0.00 61 1010.4
20260509230318 24 315 4.8 8.0 0.00 0.00 0.00 61 1010.5
20260509230225 24 321 4.8 8.0 0.00 0.00 0.00 61 1010.5
20260509230116 24 340 3.2 6.4 0.00 0.00 0.00 61 1010.4
20260509230022 24 346 3.2 4.8 0.00 0.00 0.00 61 1010.4
20260509225930 24 346 3.2 4.8 0.00 0.00 0.00 61 1010.4
20260509225838 25 346 3.2 6.4 0.00 0.00 0.00 60 1010.4
20260509225725 24 346 3.2 6.4 0.00 0.00 0.00 60 1010.4
20260509225613 25 289 3.2 6.4 0.00 0.00 0.00 61 1010.4
20260509225523 25 304 3.2 6.4 0.00 0.00 0.00 61 1010.4
20260509225431 25 252 3.2 6.4 0.00 0.00 0.00 61 1010.5
20260509225337 25 267 3.2 8.0 0.00 0.00 0.00 61 1010.3
20260509225244 25 293 3.2 8.0 0.00 0.00 0.00 60 1010.3
20260509225130 25 293 3.2 8.0 0.00 0.00 0.00 61 1010.3
20260509225105 25 310 3.2 8.0 0.00 0.00 0.00 60 1010.2
20260509224818 25 312 4.8 8.0 0.00 0.00 0.00 60 1010.3
20260509224725 25 325 4.8 8.0 0.00 0.00 0.00 60 1010.3
20260509224614 25 298 6.4 8.0 0.00 0.00 0.00 60 1010.3
20260509224520 25 344 4.8 8.0 0.00 0.00 0.00 60 1010.4
20260509224413 25 327 3.2 8.0 0.00 0.00 0.00 60 1010.3
20260509224321 25 317 3.2 8.0 0.00 0.00 0.00 60 1010.3
20260509224248 25 315 3.2 8.0 0.00 0.00 0.00 60 1010.3
20260509224113 25 330 4.8 8.0 0.00 0.00 0.00 61 1010.3
20260509224021 25 340 4.8 8.0 0.00 0.00 0.00 61 1010.3
20260509223949 25 348 4.8 8.0 0.00 0.00 0.00 60 1010.3
20260509223816 25 333 4.8 8.0 0.00 0.00 0.00 60 1010.3
20260509223727 25 336 3.2 8.0 0.00 0.00 0.00 60 1010.3
20260509223655 25 259 3.2 8.0 0.00 0.00 0.00 60 1010.3
20260509223604 25 263 4.8 8.0 0.00 0.00 0.00 60 1010.3
20260509223319 25 329 4.8 8.0 0.00 0.00 0.00 60 1010.3
20260509223226 25 334 4.8 8.0 0.00 0.00 0.00 60 1010.3
20260509223136 25 321 4.8 8.0 0.00 0.00 0.00 60 1010.2
20260509223023 25 315 4.8 8.0 0.00 0.00 0.00 60 1010.2
20260509222951 25 310 3.2 8.0 0.00 0.00 0.00 60 1010.2
20260509222817 25 332 1.6 6.4 0.00 0.00 0.00 60 1010.2
20260509222724 25 304 1.6 6.4 0.00 0.00 0.00 60 1010.2
20260509222630 25 275 3.2 6.4 0.00 0.00 0.00 61 1010.2
20260509222522 25 300 3.2 6.4 0.00 0.00 0.00 60 1010.1
20260509222431 25 302 3.2 6.4 0.00 0.00 0.00 61 1010.1
20260509222317 25 335 3.2 6.4 0.00 0.00 0.00 61 1010.2
20260509222225 25 342 3.2 6.4 0.00 0.00 0.00 61 1010.2
20260509222133 25 309 3.2 8.0 0.00 0.00 0.00 61 1010.2
20260509222108 25 311 3.2 8.0 0.00 0.00 0.00 60 1010.2
20260509221839 25 300 3.2 8.0 0.00 0.00 0.00 60 1010.1
20260509221725 25 342 3.2 8.0 0.00 0.00 0.00 60 1010.1
20260509221612 25 325 3.2 8.0 0.00 0.00 0.00 59 1010.1
20260509221540 25 325 3.2 8.0 0.00 0.00 0.00 59 1010.1
20260509221448 25 308 4.8 8.0 0.00 0.00 0.00 60 1010.1
20260509221338 25 281 4.8 8.0 0.00 0.00 0.00 60 1010.1
20260509221223 25 301 6.4 8.0 0.00 0.00 0.00 60 1010.1
20260509221151 25 313 4.8 8.0 0.00 0.00 0.00 60 1010.1
20260509221017 25 338 4.8 9.7 0.00 0.00 0.00 60 1010.1
20260509220924 25 355 4.8 9.7 0.00 0.00 0.00 61 1010.1
20260509220831 25 355 4.8 9.7 0.00 0.00 0.00 61 1010.0
20260509220719 25 351 3.2 12.9 0.00 0.00 0.00 60 1010.1
20260509220650 25 350 4.8 12.9 0.00 0.00 0.00 60 1010.1
20260509220600 25 339 4.8 12.9 0.00 0.00 0.00 60 1010.2
20260509220335 25 344 6.4 12.9 0.00 0.00 0.00 60 1010.2
20260509220222 25 347 6.4 12.9 0.00 0.00 0.00 61 1010.2
20260509220129 25 330 6.4 12.9 0.00 0.00 0.00 60 1010.1
20260509220020 25 323 6.4 12.9 0.00 0.00 0.00 60 1010.1
20260509215927 25 294 6.4 11.3 0.00 0.00 0.00 60 1010.1
20260509215814 25 278 4.8 11.3 0.00 0.00 0.00 60 1010.1
20260509215721 25 292 4.8 9.7 0.00 0.00 0.00 61 1010.1
20260509215648 25 334 4.8 9.7 0.00 0.00 0.00 61 1010.1
20260509215514 25 360 4.8 9.7 0.00 0.00 0.00 61 1010.2
20260509215446 25 334 6.4 9.7 0.00 0.00 0.00 61 1010.2
20260509215313 25 360 6.4 9.7 0.00 0.00 0.00 61 1010.1
20260509215220 25 5 4.8 9.7 0.00 0.00 0.00 60 1010.0
20260509215129 25 360 4.8 9.7 0.00 0.00 0.00 60 1010.0
20260509215059 25 346 4.8 12.9 0.00 0.00 0.00 60 1010.1
20260509214838 25 327 3.2 12.9 0.00 0.00 0.00 60 1010.1
20260509214743 25 294 3.2 12.9 0.00 0.00 0.00 61 1010.1
20260509214628 25 266 3.2 12.9 0.00 0.00 0.00 61 1010.1
20260509214517 25 338 4.8 12.9 0.00 0.00 0.00 61 1010.1
20260509214444 25 322 4.8 12.9 0.00 0.00 0.00 61 1010.1
20260509214330 25 300 4.8 12.9 0.00 0.00 0.00 61 1010.0
20260509214239 25 336 6.4 12.9 0.00 0.00 0.00 61 1010.1
20260509214150 25 344 8.0 12.9 0.00 0.00 0.00 61 1010.1
20260509214016 25 286 8.0 12.9 0.00 0.00 0.00 61 1010.1
20260509213923 25 300 6.4 12.9 0.00 0.00 0.00 61 1010.1
20260509213832 25 258 4.8 11.3 0.00 0.00 0.00 61 1010.0
20260509213720 25 284 4.8 11.3 0.00 0.00 0.00 61 1010.0
20260509213627 25 320 4.8 8.0 0.00 0.00 0.00 61 1010.0
20260509213601 25 355 4.8 8.0 0.00 0.00 0.00 61 1010.1
20260509213316 25 355 4.8 12.9 0.00 0.00 0.00 60 1010.1
20260509213222 25 344 4.8 12.9 0.00 0.00 0.00 61 1010.1
20260509213130 25 319 3.2 12.9 0.00 0.00 0.00 60 1010.0
20260509213022 25 315 1.6 12.9 0.00 0.00 0.00 60 1010.0
20260509212929 25 316 3.2 12.9 0.00 0.00 0.00 60 1010.0
20260509212837 25 323 4.8 12.9 0.00 0.00 0.00 61 1010.0
20260509212723 25 323 6.4 12.9 0.00 0.00 0.00 60 1010.0
20260509212650 25 355 8.0 12.9 0.00 0.00 0.00 61 1009.9
20260509212516 25 323 6.4 9.7 0.00 0.00 0.00 61 1010.0
20260509212424 25 332 4.8 9.7 0.00 0.00 0.00 60 1010.0
20260509212314 25 320 4.8 9.7 0.00 0.00 0.00 61 1010.1
20260509212222 25 338 6.4 9.7 0.00 0.00 0.00 60 1010.1
20260509212130 25 338 4.8 12.9 0.00 0.00 0.00 62 1010.1
20260509212101 25 290 6.4 12.9 0.00 0.00 0.00 62 1010.1
20260509211820 25 279 8.0 12.9 0.00 0.00 0.00 62 1010.0
20260509211727 25 281 6.4 12.9 0.00 0.00 0.00 62 1010.0
20260509211613 25 261 4.8 12.9 0.00 0.00 0.00 61 1010.1
20260509211521 25 313 4.8 12.9 0.00 0.00 0.00 61 1010.1
20260509211430 25 290 4.8 12.9 0.00 0.00 0.00 62 1010.1
20260509211322 25 333 6.4 12.9 0.00 0.00 0.00 62 1010.1
20260509211230 25 332 6.4 12.9 0.00 0.00 0.00 62 1010.0
20260509211118 25 355 4.8 11.3 0.00 0.00 0.00 61 1010.1
20260509211026 25 315 4.8 9.7 0.00 0.00 0.00 62 1010.1
20260509210915 25 355 4.8 12.9 0.00 0.00 0.00 62 1010.2
20260509210822 25 321 4.8 14.5 0.00 0.00 0.00 62 1010.2
20260509210713 25 319 6.4 16.1 0.00 0.00 0.00 62 1010.1
20260509210621 25 337 6.4 16.1 0.00 0.00 0.00 62 1010.1
20260509210551 25 347 6.4 16.1 0.00 0.00 0.00 61 1010.0
20260509210325 25 291 8.0 16.1 0.00 0.00 0.00 60 1010.0
20260509210213 25 302 9.7 16.1 0.00 0.00 0.00 60 1010.0
20260509210121 25 309 11.3 16.1 0.00 0.00 0.00 61 1010.1
20260509210027 25 309 9.7 16.1 0.00 0.00 0.00 60 1010.1
20260509205915 25 315 6.4 16.1 0.00 0.00 0.00 61 1010.2
20260509205823 25 291 6.4 14.5 0.00 0.00 0.00 61 1010.2
20260509205714 25 262 8.0 14.5 0.00 0.00 0.00 61 1010.2
20260509205622 25 283 8.0 16.1 0.00 0.00 0.00 61 1010.2
20260509205548 25 306 8.0 16.1 0.00 0.00 0.00 61 1010.1
20260509205414 25 282 6.4 16.1 0.00 0.00 0.00 61 1010.2
20260509205322 25 313 6.4 16.1 0.00 0.00 0.00 61 1010.2
20260509205229 25 302 6.4 16.1 0.00 0.00 0.00 61 1010.2
20260509205116 25 286 8.0 16.1 0.00 0.00 0.00 61 1010.2
20260509205051 25 280 9.7 16.1 0.00 0.00 0.00 61 1010.2
20260509204824 25 293 8.0 16.1 0.00 0.00 0.00 62 1010.3
20260509204712 25 289 4.8 11.3 0.00 0.00 0.00 62 1010.3
20260509204618 25 240 3.2 11.3 0.00 0.00 0.00 62 1010.3
20260509204530 25 254 4.8 11.3 0.00 0.00 0.00 62 1010.3
20260509204417 25 288 4.8 12.9 0.00 0.00 0.00 62 1010.3
20260509204324 25 319 4.8 12.9 0.00 0.00 0.00 62 1010.3
20260509204213 25 269 4.8 12.9 0.00 0.00 0.00 62 1010.4
20260509204140 25 263 4.8 12.9 0.00 0.00 0.00 62 1010.4
20260509204027 25 290 4.8 12.9 0.00 0.00 0.00 62 1010.4
20260509203920 25 284 3.2 12.9 0.00 0.00 0.00 62 1010.4
20260509203828 25 243 3.2 12.9 0.00 0.00 0.00 62 1010.4
20260509203736 25 321 4.8 12.9 0.00 0.00 0.00 62 1010.4
20260509203623 24 290 6.4 12.9 0.00 0.00 0.00 62 1010.4
20260509203554 24 323 8.0 12.9 0.00 0.00 0.00 63 1010.4
20260509203311 24 264 6.4 12.9 0.00 0.00 0.00 63 1010.4
20260509203219 24 288 3.2 12.9 0.00 0.00 0.00 63 1010.4
20260509203126 24 242 3.2 12.9 0.00 0.00 0.00 62 1010.4
20260509203013 24 360 3.2 12.9 0.00 0.00 0.00 64 1010.4
20260509202922 24 5 4.8 12.9 0.00 0.00 0.00 63 1010.4
20260509202812 24 253 4.8 12.9 0.00 0.00 0.00 63 1010.4
20260509202719 24 263 4.8 12.9 0.00 0.00 0.00 64 1010.4
20260509202625 24 239 4.8 8.0 0.00 0.00 0.00 63 1010.4
20260509202512 24 285 4.8 12.9 0.00 0.00 0.00 63 1010.5
20260509202418 24 277 4.8 12.9 0.00 0.00 0.00 64 1010.5
20260509202327 24 298 4.8 12.9 0.00 0.00 0.00 64 1010.5
20260509202218 24 291 4.8 12.9 0.00 0.00 0.00 65 1010.5
20260509202125 24 306 4.8 12.9 0.00 0.00 0.00 63 1010.5
20260509202056 24 295 4.8 12.9 0.00 0.00 0.00 63 1010.5
20260509201831 24 316 6.4 12.9 0.00 0.00 0.00 63 1010.7
20260509201721 24 305 4.8 12.9 0.00 0.00 0.00 65 1010.5
20260509201629 24 215 3.2 12.9 0.00 0.00 0.00 64 1010.6
20260509201517 24 220 1.6 12.9 0.00 0.00 0.00 65 1010.6
20260509201425 24 238 3.2 12.9 0.00 0.00 0.00 65 1010.6
20260509201333 24 270 3.2 12.9 0.00 0.00 0.00 65 1010.5
20260509201220 24 261 3.2 14.5 0.00 0.00 0.00 65 1010.5
20260509201131 24 310 3.2 17.7 0.00 0.00 0.00 65 1010.5
20260509201018 24 30 6.4 17.7 0.00 0.00 0.00 65 1010.6
20260509200925 24 253 8.0 17.7 0.00 0.00 0.00 64 1010.6
20260509200852 24 268 6.4 17.7 0.00 0.00 0.00 64 1010.5
20260509200719 24 254 8.0 17.7 0.00 0.00 0.00 64 1010.6
20260509200626 24 272 9.7 17.7 0.00 0.00 0.00 64 1010.6
20260509200601 24 303 11.3 17.7 0.00 0.00 0.00 64 1010.5
20260509200314 24 294 9.7 17.7 0.00 0.00 0.00 64 1010.5
20260509200220 24 296 9.7 17.7 0.00 0.00 0.00 63 1010.5
20260509200127 24 301 8.0 16.1 0.00 0.00 0.00 63 1010.5
20260509200020 24 299 9.7 16.1 0.00 0.00 0.00 63 1010.5
20260509195927 24 304 9.7 16.1 0.00 0.00 0.00 64 1010.5
20260509195815 24 265 9.7 16.1 0.00 0.00 0.00 64 1010.5
20260509195742 24 274 8.0 14.5 0.00 0.00 0.00 64 1010.6
20260509195629 24 281 9.7 14.5 0.00 0.00 0.00 64 1010.6
20260509195517 24 291 9.7 14.5 0.00 0.00 0.00 64 1010.5
20260509195430 24 281 8.0 14.5 0.00 0.00 0.00 64 1010.5
20260509195316 24 294 6.4 14.5 0.00 0.00 0.00 64 1010.5
20260509195223 24 311 8.0 14.5 0.00 0.00 0.00 64 1010.5
20260509195131 24 274 8.0 14.5 0.00 0.00 0.00 64 1010.6
20260509195101 24 279 8.0 17.7 0.00 0.00 0.00 64 1010.6
20260509194819 24 288 6.4 17.7 0.00 0.00 0.00 63 1010.6
20260509194726 24 302 6.4 17.7 0.00 0.00 0.00 63 1010.6
20260509194652 24 290 6.4 17.7 0.00 0.00 0.00 63 1010.5
20260509194540 24 267 9.7 17.7 0.00 0.00 0.00 63 1010.5
20260509194426 24 273 11.3 17.7 0.00 0.00 0.00 63 1010.5
20260509194314 24 281 11.3 17.7 0.00 0.00 0.00 63 1010.4
20260509194227 24 273 11.3 17.7 0.00 0.00 0.00 63 1010.4
20260509194115 24 269 9.7 16.1 0.00 0.00 0.00 64 1010.5
20260509194021 24 330 8.0 16.1 0.00 0.00 0.00 64 1010.5
20260509193929 24 287 8.0 14.5 0.00 0.00 0.00 65 1010.5
20260509193817 24 313 6.4 14.5 0.00 0.00 0.00 65 1010.6
20260509193745 24 326 6.4 14.5 0.00 0.00 0.00 64 1010.6
20260509193614 24 290 6.4 11.3 0.00 0.00 0.00 66 1010.7
20260509193546 24 249 6.4 9.7 0.00 0.00 0.00 65 1010.7
20260509193339 24 277 4.8 9.7 0.00 0.00 0.00 65 1010.4
20260509193225 24 296 3.2 12.9 0.00 0.00 0.00 65 1010.4
20260509193114 24 275 4.8 12.9 0.00 0.00 0.00 65 1010.4
20260509193041 24 283 4.8 14.5 0.00 0.00 0.00 65 1010.4
20260509192948 24 273 4.8 14.5 0.00 0.00 0.00 64 1010.4
20260509192814 24 5 6.4 14.5 0.00 0.00 0.00 64 1010.4
20260509192722 24 319 6.4 14.5 0.00 0.00 0.00 64 1010.4
20260509192629 24 277 4.8 14.5 0.00 0.00 0.00 65 1010.6
20260509192516 24 317 6.4 14.5 0.00 0.00 0.00 64 1010.6
20260509192427 24 348 8.0 14.5 0.00 0.00 0.00 64 1010.6
20260509192314 24 297 8.0 14.5 0.00 0.00 0.00 65 1010.5
20260509192223 24 237 6.4 14.5 0.00 0.00 0.00 65 1010.5
20260509192131 24 224 4.8 14.5 0.00 0.00 0.00 67 1010.6
20260509192105 24 194 3.2 14.5 0.00 0.00 0.00 64 1010.6
20260509191819 24 360 3.2 17.7 0.00 0.00 0.00 63 1010.8
20260509191727 24 34 4.8 17.7 0.00 0.00 0.00 63 1010.8
20260509191614 24 181 8.0 17.7 0.00 0.00 0.00 64 1010.9
20260509191523 24 219 8.0 17.7 0.00 0.00 0.00 64 1010.9
20260509191450 24 215 4.8 17.7 0.00 0.00 0.00 64 1010.8
20260509191322 24 313 6.4 17.7 0.00 0.00 0.00 65 1010.8
20260509191229 24 292 6.4 17.7 0.00 0.00 0.00 64 1010.9
20260509191117 24 244 8.0 17.7 0.00 0.00 0.00 65 1010.9
20260509191046 24 258 6.4 17.7 0.00 0.00 0.00 65 1010.9
20260509190952 24 262 8.0 17.7 0.00 0.00 0.00 65 1010.9
20260509190819 24 248 8.0 16.1 0.00 0.00 0.00 65 1010.8
20260509190730 24 239 9.7 16.1 0.00 0.00 0.00 66 1010.8
20260509190617 24 241 11.3 16.1 0.00 0.00 0.00 66 1010.9
20260509190547 24 302 11.3 16.1 0.00 0.00 0.00 66 1010.9
20260509190340 24 329 9.7 16.1 0.00 0.00 0.00 66 1010.7
20260509190246 23 329 8.0 14.5 0.00 0.00 0.00 66 1010.7
20260509190117 23 264 8.0 14.5 0.00 0.00 0.00 66 1010.8
20260509190024 23 343 8.0 14.5 0.00 0.00 0.00 66 1010.8
20260509185932 23 309 6.4 12.9 0.00 0.00 0.00 67 1010.8
20260509185819 23 277 3.2 14.5 0.00 0.00 0.00 67 1010.9
20260509185727 23 167 1.6 14.5 0.00 0.00 0.00 67 1010.9
20260509185634 23 49 3.2 14.5 0.00 0.00 0.00 67 1010.8
20260509185525 23 286 3.2 14.5 0.00 0.00 0.00 67 1010.8
20260509185452 23 270 3.2 14.5 0.00 0.00 0.00 67 1010.8
20260509185320 23 336 4.8 14.5 0.00 0.00 0.00 67 1010.9
20260509185227 23 287 6.4 14.5 0.00 0.00 0.00 66 1010.9
20260509185136 23 252 6.4 14.5 0.00 0.00 0.00 67 1010.9
20260509185049 23 260 6.4 17.7 0.00 0.00 0.00 67 1010.9
20260509184821 23 306 3.2 17.7 0.00 0.00 0.00 67 1011.0
20260509184728 23 218 3.2 17.7 0.00 0.00 0.00 67 1010.9
20260509184615 23 220 3.2 17.7 0.00 0.00 0.00 68 1011.0
20260509184523 23 243 6.4 17.7 0.00 0.00 0.00 67 1011.0
20260509184431 23 291 8.0 17.7 0.00 0.00 0.00 66 1011.0
20260509184342 23 293 8.0 17.7 0.00 0.00 0.00 67 1011.1
20260509184249 23 293 8.0 17.7 0.00 0.00 0.00 68 1011.1
20260509184115 23 259 6.4 14.5 0.00 0.00 0.00 68 1011.1
20260509184022 23 248 6.4 14.5 0.00 0.00 0.00 67 1011.1
20260509183929 23 253 6.4 14.5 0.00 0.00 0.00 67 1011.1
20260509183816 23 248 6.4 14.5 0.00 0.00 0.00 67 1011.1
20260509183728 23 281 6.4 14.5 0.00 0.00 0.00 68 1011.1
20260509183654 23 330 6.4 14.5 0.00 0.00 0.00 69 1011.1
20260509183604 23 284 8.0 14.5 0.00 0.00 0.00 69 1011.2
20260509183317 23 288 9.7 14.5 0.00 0.00 0.00 68 1011.2
20260509183224 23 345 8.0 14.5 0.00 0.00 0.00 69 1011.2
20260509183115 23 246 6.4 14.5 0.00 0.00 0.00 70 1011.1
20260509183022 23 206 4.8 12.9 0.00 0.00 0.00 68 1011.1
20260509182930 23 228 4.8 12.9 0.00 0.00 0.00 67 1011.2
20260509182818 23 202 4.8 12.9 0.00 0.00 0.00 67 1011.3
20260509182747 23 197 6.4 14.5 0.00 0.00 0.00 67 1011.3
20260509182633 23 238 4.8 14.5 0.00 0.00 0.00 67 1011.3
20260509182539 23 275 3.2 14.5 0.00 0.00 0.00 67 1011.3
20260509182430 23 276 4.8 14.5 0.00 0.00 0.00 67 1011.3
20260509182318 23 347 4.8 14.5 0.00 0.00 0.00 67 1011.4
20260509182226 23 215 6.4 14.5 0.00 0.00 0.00 67 1011.4
20260509182113 23 246 8.0 14.5 0.00 0.00 0.00 67 1011.3
20260509182047 23 288 8.0 14.5 0.00 0.00 0.00 67 1011.3
20260509181822 23 339 6.4 14.5 0.00 0.00 0.00 68 1011.3
20260509181728 23 279 6.4 17.7 0.00 0.00 0.00 68 1011.4
20260509181617 23 318 4.8 17.7 0.00 0.00 0.00 68 1011.3
20260509181525 23 242 4.8 17.7 0.00 0.00 0.00 68 1011.3
20260509181417 23 319 3.2 17.7 0.00 0.00 0.00 69 1011.3
20260509181325 23 302 3.2 17.7 0.00 0.00 0.00 69 1011.3
20260509181213 23 319 3.2 17.7 0.00 0.00 0.00 69 1011.2
20260509181120 22 319 4.8 17.7 0.00 0.00 0.00 70 1011.3
20260509181027 22 329 6.4 17.7 0.00 0.00 0.00 69 1011.3
20260509180913 22 342 9.7 17.7 0.00 0.00 0.00 68 1011.2
20260509180845 22 287 11.3 17.7 0.00 0.00 0.00 68 1011.2
20260509180752 22 282 8.0 17.7 0.00 0.00 0.00 68 1011.3
20260509180618 22 330 4.8 16.1 0.00 0.00 0.00 68 1011.3
20260509180548 22 277 3.2 16.1 0.00 0.00 0.00 69 1011.3
20260509180322 22 213 4.8 16.1 0.00 0.00 0.00 68 1011.2
20260509180234 22 200 6.4 16.1 0.00 0.00 0.00 69 1011.1
20260509180120 22 260 8.0 16.1 0.00 0.00 0.00 69 1011.1
20260509180027 22 276 8.0 16.1 0.00 0.00 0.00 70 1011.1
20260509175934 22 245 4.8 16.1 0.00 0.00 0.00 69 1011.1
20260509175821 22 267 3.2 14.5 0.00 0.00 0.00 69 1011.1
20260509175727 22 287 4.8 14.5 0.00 0.00 0.00 69 1011.1
20260509175634 22 308 6.4 14.5 0.00 0.00 0.00 69 1011.2
20260509175524 22 331 8.0 14.5 0.00 0.00 0.00 68 1011.2
20260509175452 22 306 8.0 14.5 0.00 0.00 0.00 69 1011.1
20260509175338 22 290 8.0 14.5 0.00 0.00 0.00 69 1011.1
20260509175226 22 307 6.4 12.9 0.00 0.00 0.00 70 1011.1
20260509175132 22 262 3.2 12.9 0.00 0.00 0.00 70 1011.1
20260509175105 22 277 3.2 14.5 0.00 0.00 0.00 70 1011.1
20260509174818 22 275 4.8 14.5 0.00 0.00 0.00 70 1011.1
20260509174726 22 205 4.8 14.5 0.00 0.00 0.00 69 1011.1
20260509174634 22 192 4.8 14.5 0.00 0.00 0.00 70 1011.2
20260509174520 22 252 4.8 14.5 0.00 0.00 0.00 68 1011.2
20260509174428 22 192 6.4 16.1 0.00 0.00 0.00 68 1011.2
20260509174319 22 227 8.0 16.1 0.00 0.00 0.00 68 1011.2
20260509174226 22 251 8.0 16.1 0.00 0.00 0.00 69 1011.2
20260509174113 22 253 6.4 16.1 0.00 0.00 0.00 69 1011.1
20260509174021 22 272 6.4 16.1 0.00 0.00 0.00 70 1011.1
20260509173928 22 232 6.4 16.1 0.00 0.00 0.00 69 1011.1
20260509173819 22 334 8.0 16.1 0.00 0.00 0.00 69 1011.1
20260509173728 22 323 9.7 16.1 0.00 0.00 0.00 69 1011.1
20260509173635 22 298 8.0 16.1 0.00 0.00 0.00 69 1010.9
20260509173546 22 308 6.4 14.5 0.00 0.00 0.00 70 1010.9
20260509173320 22 275 4.8 11.3 0.00 0.00 0.00 71 1010.9
20260509173212 22 292 3.2 9.7 0.00 0.00 0.00 71 1010.9
20260509173118 22 273 3.2 12.9 0.00 0.00 0.00 71 1010.9
20260509173026 22 202 3.2 12.9 0.00 0.00 0.00 70 1010.9
20260509172934 22 259 1.6 14.5 0.00 0.00 0.00 71 1011.0
20260509172821 22 296 1.6 14.5 0.00 0.00 0.00 71 1010.9
20260509172748 22 163 3.2 14.5 0.00 0.00 0.00 70 1010.9
20260509172618 22 263 3.2 14.5 0.00 0.00 0.00 71 1011.0
20260509172525 21 302 4.8 14.5 0.00 0.00 0.00 71 1011.0
20260509172414 21 161 8.0 14.5 0.00 0.00 0.00 71 1011.1
20260509172320 21 173 8.0 14.5 0.00 0.00 0.00 70 1011.1
20260509172247 21 187 8.0 14.5 0.00 0.00 0.00 70 1011.1
20260509172113 21 196 4.8 12.9 0.00 0.00 0.00 71 1011.2
20260509172048 21 173 6.4 12.9 0.00 0.00 0.00 72 1011.2
20260509171822 21 186 6.4 12.9 0.00 0.00 0.00 72 1011.3
20260509171748 21 274 6.4 12.9 0.00 0.00 0.00 71 1011.3
20260509171614 21 248 6.4 16.1 0.00 0.00 0.00 72 1011.3
20260509171521 21 217 4.8 16.1 0.00 0.00 0.00 72 1011.3
20260509171432 21 169 6.4 16.1 0.00 0.00 0.00 72 1011.3
20260509171316 21 192 8.0 16.1 0.00 0.00 0.00 73 1011.3
20260509171223 21 304 8.0 16.1 0.00 0.00 0.00 73 1011.3
20260509171131 21 260 8.0 19.3 0.00 0.00 0.00 73 1011.4
20260509171019 21 240 9.7 19.3 0.00 0.00 0.00 74 1011.3
20260509170926 21 275 9.7 19.3 0.00 0.00 0.00 74 1011.3
20260509170818 21 241 8.0 19.3 0.00 0.00 0.00 74 1011.4
20260509170726 21 217 6.4 19.3 0.00 0.00 0.00 75 1011.4
20260509170633 21 301 8.0 19.3 0.00 0.00 0.00 76 1011.3
20260509170604 21 242 9.7 19.3 0.00 0.00 0.00 75 1011.3
20260509170341 21 228 9.7 19.3 0.00 0.00 0.00 74 1011.5
20260509170246 21 204 8.0 17.7 0.00 0.00 0.00 74 1011.5
20260509170112 21 170 8.0 17.7 0.00 0.00 0.00 74 1011.5
20260509170020 21 180 8.0 17.7 0.00 0.00 0.00 74 1011.6
20260509165928 21 187 9.7 17.7 0.00 0.00 0.00 74 1011.6
20260509165816 21 242 11.3 17.7 0.00 0.00 0.00 74 1011.6
20260509165729 21 202 9.7 17.7 0.00 0.00 0.00 74 1011.6
20260509165615 21 228 6.4 19.3 0.00 0.00 0.00 74 1011.6
20260509165524 21 199 4.8 19.3 0.00 0.00 0.00 74 1011.6
20260509165451 21 224 4.8 19.3 0.00 0.00 0.00 76 1011.6
20260509165318 20 178 8.0 19.3 0.00 0.00 0.00 76 1011.7
20260509165246 20 183 8.0 19.3 0.00 0.00 0.00 75 1011.7
20260509165132 20 183 9.7 19.3 0.00 0.00 0.00 74 1011.7
20260509165046 20 160 9.7 19.3 0.00 0.00 0.00 74 1011.7
20260509164840 20 164 11.3 19.3 0.00 0.00 0.00 75 1011.8
20260509164727 20 180 11.3 19.3 0.00 0.00 0.00 75 1011.8
20260509164615 20 175 9.7 19.3 0.00 0.00 0.00 76 1011.7
20260509164522 20 205 6.4 19.3 0.00 0.00 0.00 76 1011.7
20260509164412 20 180 8.0 19.3 0.00 0.00 0.00 75 1011.7
20260509164320 20 169 8.0 19.3 0.00 0.00 0.00 75 1011.7
20260509164227 20 142 11.3 19.3 0.00 0.00 0.00 75 1011.7
20260509164116 20 212 9.7 19.3 0.00 0.00 0.00 75 1011.8
20260509164023 20 184 9.7 17.7 0.00 0.00 0.00 75 1011.8
20260509163915 20 183 9.7 17.7 0.00 0.00 0.00 75 1011.8
20260509163823 20 189 8.0 14.5 0.00 0.00 0.00 76 1011.8
20260509163730 20 217 6.4 14.5 0.00 0.00 0.00 75 1011.8
20260509163617 20 205 6.4 12.9 0.00 0.00 0.00 77 1011.8
20260509163552 20 148 6.4 12.9 0.00 0.00 0.00 77 1011.8
20260509163346 20 176 6.4 16.1 0.00 0.00 0.00 77 1011.8
20260509163211 20 240 4.8 17.7 0.00 0.00 0.00 77 1011.8
20260509163119 20 288 4.8 17.7 0.00 0.00 0.00 77 1011.8
20260509163048 20 283 4.8 17.7 0.00 0.00 0.00 77 1011.8
20260509162915 20 186 3.2 17.7 0.00 0.00 0.00 77 1011.8
20260509162843 20 304 3.2 17.7 0.00 0.00 0.00 76 1011.8
20260509162712 20 232 4.8 17.7 0.00 0.00 0.00 77 1011.9
20260509162641 20 192 8.0 17.7 0.00 0.00 0.00 77 1011.7
20260509162548 20 200 8.0 17.7 0.00 0.00 0.00 78 1011.7
20260509162415 20 167 9.7 17.7 0.00 0.00 0.00 78 1011.7
20260509162343 20 232 9.7 19.3 0.00 0.00 0.00 78 1011.7
20260509162230 20 165 8.0 14.5 0.00 0.00 0.00 78 1011.8
20260509162117 20 180 8.0 14.5 0.00 0.00 0.00 78 1011.8
20260509162050 20 192 8.0 14.5 0.00 0.00 0.00 78 1011.8
20260509161824 19 169 9.7 14.5 0.00 0.00 0.00 78 1011.7
20260509161751 19 226 9.7 14.5 0.00 0.00 0.00 78 1011.7